Wetterdaten: Dienstag, 22.09.2015
Datum Zeit Temp. Aussen Temp. o. S. +5cm Feuchte Auss BlattFeu 1 Luftdruck Regen Sonnenschein Regendauer Solar Windben Empfang
22.09.2015 00:00 14,6 C 13,3 C 11,7 C 81 % 15 lf 1008,3 hPa 0,0 l/m 0 min 2 min 0 W/m 12,6 km/h (3 Bft) 93,62 %
22.09.2015 00:02 14,5 C 12,8 C 11,7 C 81 % 15 lf 1008,3 hPa 0,0 l/m 0 min 2 min 0 W/m 10,5 km/h (2 Bft) 97,22 %
22.09.2015 00:05 14,5 C 12,8 C 11,1 C 82 % 15 lf 1008,3 hPa 0,0 l/m 0 min 2 min 0 W/m 6,3 km/h (2 Bft) 93,42 %
22.09.2015 00:06 14,4 C 12,8 C 11,1 C 82 % 15 lf 1008,3 hPa 0,0 l/m 0 min 1 min 0 W/m 4,2 km/h (1 Bft) 87,50 %
22.09.2015 00:08 14,4 C 12,2 C 11,1 C 82 % 15 lf 1008,2 hPa 0,2 l/m 0 min 2 min 0 W/m 16,7 km/h (3 Bft) 95,74 %
22.09.2015 00:10 14,4 C 12,2 C 11,1 C 82 % 15 lf 1008,2 hPa 0,0 l/m 0 min 2 min 0 W/m 14,6 km/h (3 Bft) 93,48 %
22.09.2015 00:12 14,3 C 12,2 C 11,1 C 83 % 15 lf 1008,2 hPa 0,2 l/m 0 min 2 min 0 W/m 14,6 km/h (3 Bft) 97,87 %
22.09.2015 00:14 14,3 C 12,2 C 11,1 C 83 % 15 lf 1008,2 hPa 0,0 l/m 0 min 2 min 0 W/m 8,4 km/h (2 Bft) 93,62 %
22.09.2015 00:16 14,2 C 12,2 C 11,1 C 84 % 15 lf 1008,2 hPa 0,2 l/m 0 min 2 min 0 W/m 12,6 km/h (3 Bft) 95,74 %
22.09.2015 00:18 14,2 C 11,7 C 11,1 C 84 % 15 lf 1008,2 hPa 0,0 l/m 0 min 2 min 0 W/m 14,6 km/h (3 Bft) 93,62 %
22.09.2015 00:20 14,2 C 11,7 C 11,1 C 84 % 15 lf 1008,2 hPa 0,2 l/m 0 min 2 min 0 W/m 12,6 km/h (3 Bft) 95,74 %
22.09.2015 00:22 14,2 C 11,7 C 11,1 C 84 % 15 lf 1008,1 hPa 0,0 l/m 0 min 2 min 0 W/m 10,5 km/h (2 Bft) 93,48 %
22.09.2015 00:24 14,1 C 11,7 C 11,1 C 85 % 15 lf 1008,0 hPa 0,2 l/m 0 min 2 min 0 W/m 10,5 km/h (2 Bft) 95,74 %
22.09.2015 00:26 14,0 C 11,7 C 11,1 C 85 % 15 lf 1008,0 hPa 0,0 l/m 0 min 2 min 0 W/m 10,5 km/h (2 Bft) 97,87 %
22.09.2015 00:28 13,9 C 11,7 C 11,1 C 85 % 15 lf 1008,0 hPa 0,0 l/m 0 min 2 min 0 W/m 8,4 km/h (2 Bft) 97,87 %
22.09.2015 00:30 13,9 C 11,7 C 11,1 C 85 % 15 lf 1008,1 hPa 0,0 l/m 0 min 2 min 0 W/m 12,6 km/h (3 Bft) 95,74 %
22.09.2015 00:32 13,8 C 11,7 C 10,6 C 85 % 15 lf 1008,0 hPa 0,2 l/m 0 min 2 min 0 W/m 6,3 km/h (2 Bft) 95,74 %
22.09.2015 00:34 13,8 C 11,7 C 10,6 C 86 % 15 lf 1007,9 hPa 0,0 l/m 0 min 2 min 0 W/m 10,5 km/h (2 Bft) 91,30 %
22.09.2015 00:36 13,7 C 11,7 C 10,6 C 86 % 15 lf 1007,9 hPa 0,0 l/m 0 min 2 min 0 W/m 10,5 km/h (2 Bft) 95,74 %
22.09.2015 00:38 13,7 C 11,7 C 10,6 C 86 % 15 lf 1007,9 hPa 0,0 l/m 0 min 2 min 0 W/m 8,4 km/h (2 Bft) 97,87 %
22.09.2015 00:40 13,6 C 11,7 C 10,6 C 86 % 15 lf 1007,8 hPa 0,0 l/m 0 min 2 min 0 W/m 12,6 km/h (3 Bft) 93,62 %
22.09.2015 00:42 13,6 C 11,7 C 11,1 C 87 % 15 lf 1007,9 hPa 0,0 l/m 0 min 2 min 0 W/m 8,4 km/h (2 Bft) 97,87 %
22.09.2015 00:44 13,5 C 11,7 C 11,1 C 87 % 15 lf 1007,8 hPa 0,2 l/m 0 min 2 min 0 W/m 12,6 km/h (3 Bft) 97,83 %
22.09.2015 00:46 13,4 C 11,7 C 11,1 C 87 % 15 lf 1007,8 hPa 0,0 l/m 0 min 2 min 0 W/m 8,4 km/h (2 Bft) 97,87 %
22.09.2015 00:48 13,4 C 11,7 C 11,1 C 88 % 15 lf 1007,8 hPa 0,0 l/m 0 min 2 min 0 W/m 10,5 km/h (2 Bft) 97,87 %
22.09.2015 00:50 13,3 C 11,7 C 11,1 C 88 % 15 lf 1007,8 hPa 0,0 l/m 0 min 2 min 0 W/m 10,5 km/h (2 Bft) 97,87 %
22.09.2015 00:52 13,3 C 11,7 C 11,1 C 88 % 15 lf 1007,8 hPa 0,2 l/m 0 min 2 min 0 W/m 6,3 km/h (2 Bft) 95,74 %
22.09.2015 00:54 13,2 C 11,7 C 11,1 C 88 % 15 lf 1007,7 hPa 0,0 l/m 0 min 2 min 0 W/m 8,4 km/h (2 Bft) 93,62 %
22.09.2015 00:56 13,2 C 11,7 C 11,1 C 89 % 15 lf 1007,7 hPa 0,0 l/m 0 min 2 min 0 W/m 16,7 km/h (3 Bft) 95,65 %
22.09.2015 00:58 13,1 C 11,7 C 11,1 C 89 % 15 lf 1007,7 hPa 0,0 l/m 0 min 2 min 0 W/m 14,6 km/h (3 Bft) 97,87 %
22.09.2015 01:00 13,1 C 11,7 C 11,1 C 89 % 15 lf 1007,7 hPa 0,0 l/m 0 min 2 min 0 W/m 10,5 km/h (2 Bft) 95,74 %
22.09.2015 01:02 13,0 C 11,7 C 10,6 C 89 % 15 lf 1007,6 hPa 0,0 l/m 0 min 2 min 0 W/m 12,6 km/h (3 Bft) 95,74 %
22.09.2015 01:04 13,0 C 11,7 C 10,6 C 90 % 15 lf 1007,6 hPa 0,0 l/m 0 min 2 min 0 W/m 14,6 km/h (3 Bft) 93,62 %
22.09.2015 01:06 12,9 C 11,7 C 10,6 C 90 % 15 lf 1007,6 hPa 0,0 l/m 0 min 2 min 0 W/m 12,6 km/h (3 Bft) 97,87 %
22.09.2015 01:08 12,9 C 11,7 C 10,6 C 90 % 15 lf 1007,5 hPa 0,0 l/m 0 min 2 min 0 W/m 12,6 km/h (3 Bft) 93,48 %
22.09.2015 01:10 12,9 C 11,7 C 10,6 C 90 % 15 lf 1007,5 hPa 0,2 l/m 0 min 2 min 0 W/m 10,5 km/h (2 Bft) 97,87 %
22.09.2015 01:12 12,8 C 11,7 C 10,6 C 90 % 15 lf 1007,5 hPa 0,0 l/m 0 min 2 min 0 W/m 18,8 km/h (3 Bft) 95,74 %
22.09.2015 01:14 12,8 C 11,7 C 10,6 C 90 % 15 lf 1007,3 hPa 0,0 l/m 0 min 2 min 0 W/m 14,6 km/h (3 Bft) 97,87 %
22.09.2015 01:16 12,8 C 11,7 C 10,6 C 91 % 15 lf 1007,3 hPa 0,0 l/m 0 min 2 min 0 W/m 14,6 km/h (3 Bft) 97,87 %
22.09.2015 01:18 12,7 C 11,7 C 10,6 C 91 % 15 lf 1007,3 hPa 0,0 l/m 0 min 2 min 0 W/m 20,9 km/h (4 Bft) 97,87 %
22.09.2015 01:20 12,7 C 11,7 C 10,6 C 91 % 15 lf 1007,2 hPa 0,0 l/m 0 min 2 min 0 W/m 16,7 km/h (3 Bft) 95,65 %
22.09.2015 01:22 12,7 C 11,7 C 10,6 C 91 % 15 lf 1007,2 hPa 0,0 l/m 0 min 2 min 0 W/m 14,6 km/h (3 Bft) 97,87 %
22.09.2015 01:24 12,6 C 11,7 C 10,6 C 91 % 15 lf 1007,0 hPa 0,0 l/m 0 min 2 min 0 W/m 25,1 km/h (4 Bft) 100,00 %
22.09.2015 01:26 12,6 C 11,7 C 10,6 C 91 % 15 lf 1007,0 hPa 0,2 l/m 0 min 2 min 0 W/m 20,9 km/h (4 Bft) 100,00 %
22.09.2015 01:28 12,6 C 11,7 C 10,6 C 91 % 15 lf 1006,9 hPa 0,0 l/m 0 min 2 min 0 W/m 14,6 km/h (3 Bft) 100,00 %
22.09.2015 01:30 12,5 C 11,7 C 10,6 C 91 % 15 lf 1007,0 hPa 0,0 l/m 0 min 2 min 0 W/m 16,7 km/h (3 Bft) 97,83 %
22.09.2015 01:32 12,4 C 11,7 C 10,6 C 92 % 15 lf 1006,9 hPa 0,0 l/m 0 min 2 min 0 W/m 14,6 km/h (3 Bft) 100,00 %
22.09.2015 01:34 12,4 C 11,7 C 10,6 C 92 % 15 lf 1006,9 hPa 0,2 l/m 0 min 2 min 0 W/m 16,7 km/h (3 Bft) 97,87 %
22.09.2015 01:36 12,4 C 11,1 C 10,6 C 92 % 15 lf 1006,8 hPa 0,0 l/m 0 min 2 min 0 W/m 16,7 km/h (3 Bft) 100,00 %
22.09.2015 01:38 12,4 C 11,1 C 10,6 C 92 % 15 lf 1006,8 hPa 0,0 l/m 0 min 2 min 0 W/m 20,9 km/h (4 Bft) 100,00 %
22.09.2015 01:40 12,3 C 11,7 C 10,6 C 92 % 15 lf 1006,8 hPa 0,0 l/m 0 min 2 min 0 W/m 20,9 km/h (4 Bft) 97,87 %
22.09.2015 01:42 12,3 C 11,7 C 10,6 C 92 % 15 lf 1006,8 hPa 0,0 l/m 0 min 0 min 0 W/m 16,7 km/h (3 Bft) 100,00 %
22.09.2015 01:44 12,3 C 11,7 C 10,6 C 92 % 15 lf 1006,8 hPa 0,0 l/m 0 min 0 min 0 W/m 14,6 km/h (3 Bft) 95,74 %
22.09.2015 01:46 12,3 C 11,7 C 10,6 C 92 % 15 lf 1006,8 hPa 0,0 l/m 0 min 0 min 0 W/m 12,6 km/h (3 Bft) 95,74 %
22.09.2015 01:48 12,2 C 11,7 C 10,6 C 92 % 15 lf 1006,7 hPa 0,0 l/m 0 min 2 min 0 W/m 16,7 km/h (3 Bft) 95,74 %
22.09.2015 01:50 12,2 C 11,7 C 10,6 C 92 % 15 lf 1006,7 hPa 0,0 l/m 0 min 2 min 0 W/m 18,8 km/h (3 Bft) 97,87 %
22.09.2015 01:52 12,2 C 11,7 C 10,6 C 92 % 15 lf 1006,7 hPa 0,0 l/m 0 min 2 min 0 W/m 25,1 km/h (4 Bft) 97,87 %
22.09.2015 01:54 12,2 C 11,7 C 10,6 C 92 % 15 lf 1006,5 hPa 0,0 l/m 0 min 2 min 0 W/m 12,6 km/h (3 Bft) 97,83 %
22.09.2015 01:56 12,1 C 11,1 C 10,0 C 92 % 15 lf 1006,6 hPa 0,0 l/m 0 min 2 min 0 W/m 20,9 km/h (4 Bft) 95,74 %
22.09.2015 01:58 12,1 C 11,1 C 10,0 C 92 % 15 lf 1006,5 hPa 0,0 l/m 0 min 2 min 0 W/m 16,7 km/h (3 Bft) 93,62 %
22.09.2015 02:00 12,1 C 11,1 C 10,0 C 93 % 15 lf 1006,5 hPa 0,0 l/m 0 min 2 min 0 W/m 16,7 km/h (3 Bft) 95,74 %
22.09.2015 02:02 12,1 C 11,1 C 10,0 C 93 % 15 lf 1006,5 hPa 0,0 l/m 0 min 0 min 0 W/m 12,6 km/h (3 Bft) 97,87 %
22.09.2015 02:04 12,0 C 11,1 C 10,0 C 93 % 15 lf 1006,5 hPa 0,0 l/m 0 min 0 min 0 W/m 14,6 km/h (3 Bft) 97,87 %
22.09.2015 02:06 12,0 C 11,1 C 10,0 C 93 % 15 lf 1006,4 hPa 0,0 l/m 0 min 0 min 0 W/m 16,7 km/h (3 Bft) 97,83 %
22.09.2015 02:08 12,0 C 11,1 C 10,0 C 93 % 15 lf 1006,4 hPa 0,0 l/m 0 min 0 min 0 W/m 14,6 km/h (3 Bft) 95,74 %
22.09.2015 02:10 11,9 C 11,1 C 10,0 C 93 % 15 lf 1006,4 hPa 0,0 l/m 0 min 0 min 0 W/m 18,8 km/h (3 Bft) 97,87 %
22.09.2015 02:12 11,9 C 11,1 C 10,0 C 93 % 15 lf 1006,4 hPa 0,0 l/m 0 min 0 min 0 W/m 16,7 km/h (3 Bft) 95,74 %
22.09.2015 02:14 11,9 C 11,1 C 10,0 C 93 % 15 lf 1006,3 hPa 0,0 l/m 0 min 0 min 0 W/m 16,7 km/h (3 Bft) 100,00 %
22.09.2015 02:16 11,9 C 11,1 C 10,0 C 93 % 15 lf 1006,2 hPa 0,0 l/m 0 min 0 min 0 W/m 12,6 km/h (3 Bft) 93,62 %
22.09.2015 02:18 11,9 C 11,1 C 10,0 C 93 % 15 lf 1006,2 hPa 0,0 l/m 0 min 0 min 0 W/m 16,7 km/h (3 Bft) 100,00 %
22.09.2015 02:20 11,9 C 11,1 C 10,0 C 93 % 15 lf 1006,2 hPa 0,0 l/m 0 min 0 min 0 W/m 14,6 km/h (3 Bft) 100,00 %
22.09.2015 02:22 11,9 C 11,1 C 10,0 C 93 % 15 lf 1006,2 hPa 0,0 l/m 0 min 0 min 0 W/m 16,7 km/h (3 Bft) 100,00 %
22.09.2015 02:24 11,8 C 11,1 C 10,0 C 93 % 15 lf 1006,1 hPa 0,0 l/m 0 min 0 min 0 W/m 12,6 km/h (3 Bft) 97,87 %
22.09.2015 02:26 11,8 C 11,1 C 10,0 C 93 % 15 lf 1006,1 hPa 0,0 l/m 0 min 0 min 0 W/m 10,5 km/h (2 Bft) 97,87 %
22.09.2015 02:28 11,8 C 11,1 C 10,0 C 93 % 15 lf 1006,1 hPa 0,0 l/m 0 min 0 min 0 W/m 12,6 km/h (3 Bft) 100,00 %
22.09.2015 02:30 11,8 C 11,1 C 10,0 C 93 % 15 lf 1006,1 hPa 0,0 l/m 0 min 0 min 0 W/m 14,6 km/h (3 Bft) 95,65 %
22.09.2015 02:32 11,8 C 11,1 C 10,0 C 93 % 15 lf 1006,1 hPa 0,0 l/m 0 min 0 min 0 W/m 18,8 km/h (3 Bft) 93,62 %
22.09.2015 02:34 11,8 C 11,1 C 10,0 C 94 % 15 lf 1006,1 hPa 0,0 l/m 0 min 0 min 0 W/m 14,6 km/h (3 Bft) 97,87 %
22.09.2015 02:36 11,8 C 11,1 C 10,0 C 94 % 15 lf 1006,1 hPa 0,0 l/m 0 min 0 min 0 W/m 14,6 km/h (3 Bft) 97,87 %
22.09.2015 02:38 11,8 C 11,1 C 10,0 C 94 % 15 lf 1006,0 hPa 0,0 l/m 0 min 0 min 0 W/m 14,6 km/h (3 Bft) 95,74 %
22.09.2015 02:40 11,8 C 11,7 C 10,0 C 94 % 15 lf 1006,0 hPa 0,0 l/m 0 min 0 min 0 W/m 14,6 km/h (3 Bft) 93,62 %
22.09.2015 02:42 11,8 C 11,7 C 10,0 C 94 % 15 lf 1006,1 hPa 0,0 l/m 0 min 0 min 0 W/m 14,6 km/h (3 Bft) 95,65 %
22.09.2015 02:44 11,8 C 11,7 C 10,6 C 94 % 15 lf 1006,1 hPa 0,0 l/m 0 min 2 min 0 W/m 8,4 km/h (2 Bft) 97,87 %
22.09.2015 02:46 11,8 C 11,7 C 10,0 C 94 % 15 lf 1006,0 hPa 0,0 l/m 0 min 2 min 0 W/m 16,7 km/h (3 Bft) 97,87 %
22.09.2015 02:48 11,8 C 11,7 C 10,6 C 94 % 15 lf 1006,0 hPa 0,0 l/m 0 min 2 min 0 W/m 16,7 km/h (3 Bft) 95,74 %
22.09.2015 02:50 11,8 C 11,1 C 10,6 C 94 % 15 lf 1005,9 hPa 0,0 l/m 0 min 0 min 0 W/m 12,6 km/h (3 Bft) 93,62 %
22.09.2015 02:52 11,8 C 11,1 C 10,6 C 94 % 15 lf 1005,9 hPa 0,0 l/m 0 min 0 min 0 W/m 16,7 km/h (3 Bft) 95,74 %
22.09.2015 02:54 11,8 C 11,1 C 10,0 C 94 % 15 lf 1005,9 hPa 0,0 l/m 0 min 2 min 0 W/m 16,7 km/h (3 Bft) 97,83 %
22.09.2015 02:56 11,8 C 11,7 C 10,0 C 94 % 15 lf 1005,8 hPa 0,0 l/m 0 min 2 min 0 W/m 20,9 km/h (4 Bft) 95,74 %
22.09.2015 02:58 11,8 C 11,1 C 10,6 C 94 % 15 lf 1005,7 hPa 0,0 l/m 0 min 2 min 0 W/m 10,5 km/h (2 Bft) 95,74 %
22.09.2015 03:00 11,8 C 11,1 C 10,6 C 94 % 15 lf 1005,7 hPa 0,0 l/m 0 min 0 min 0 W/m 10,5 km/h (2 Bft) 95,74 %
22.09.2015 03:02 11,8 C 11,1 C 10,6 C 94 % 15 lf 1005,7 hPa 0,0 l/m 0 min 2 min 0 W/m 14,6 km/h (3 Bft) 100,00 %
22.09.2015 03:04 11,8 C 11,1 C 10,6 C 94 % 15 lf 1005,7 hPa 0,0 l/m 0 min 2 min 0 W/m 16,7 km/h (3 Bft) 97,83 %
22.09.2015 03:06 11,8 C 11,1 C 10,6 C 94 % 15 lf 1005,7 hPa 0,0 l/m 0 min 2 min 0 W/m 20,9 km/h (4 Bft) 95,74 %
22.09.2015 03:08 11,8 C 11,1 C 10,6 C 94 % 15 lf 1005,6 hPa 0,0 l/m 0 min 2 min 0 W/m 16,7 km/h (3 Bft) 95,74 %
22.09.2015 03:10 11,8 C 11,1 C 10,6 C 94 % 15 lf 1005,5 hPa 0,2 l/m 0 min 2 min 0 W/m 18,8 km/h (3 Bft) 95,74 %
22.09.2015 03:12 11,8 C 11,7 C 10,6 C 94 % 15 lf 1005,5 hPa 0,0 l/m 0 min 2 min 0 W/m 16,7 km/h (3 Bft) 95,74 %
22.09.2015 03:14 11,8 C 11,7 C 10,6 C 94 % 15 lf 1005,5 hPa 0,0 l/m 0 min 0 min 0 W/m 12,6 km/h (3 Bft) 95,74 %
22.09.2015 03:16 11,8 C 11,7 C 10,6 C 94 % 15 lf 1005,5 hPa 0,0 l/m 0 min 0 min 0 W/m 12,6 km/h (3 Bft) 95,65 %
22.09.2015 03:18 11,8 C 11,7 C 10,6 C 94 % 15 lf 1005,5 hPa 0,0 l/m 0 min 0 min 0 W/m 10,5 km/h (2 Bft) 97,87 %
22.09.2015 03:20 11,9 C 11,7 C 10,6 C 94 % 15 lf 1005,4 hPa 0,0 l/m 0 min 0 min 0 W/m 14,6 km/h (3 Bft) 95,74 %
22.09.2015 03:22 11,9 C 11,7 C 10,6 C 95 % 15 lf 1005,4 hPa 0,0 l/m 0 min 0 min 0 W/m 18,8 km/h (3 Bft) 97,87 %
22.09.2015 03:24 11,9 C 11,7 C 10,6 C 95 % 15 lf 1005,4 hPa 0,0 l/m 0 min 2 min 0 W/m 20,9 km/h (4 Bft) 97,87 %
22.09.2015 03:26 11,9 C 11,7 C 10,6 C 95 % 15 lf 1005,2 hPa 0,0 l/m 0 min 0 min 0 W/m 25,1 km/h (4 Bft) 97,87 %
22.09.2015 03:28 11,9 C 11,7 C 10,6 C 95 % 15 lf 1005,3 hPa 0,0 l/m 0 min 2 min 0 W/m 18,8 km/h (3 Bft) 100,00 %
22.09.2015 03:30 11,9 C 11,7 C 10,6 C 95 % 15 lf 1005,2 hPa 0,0 l/m 0 min 0 min 0 W/m 14,6 km/h (3 Bft) 91,49 %
22.09.2015 03:32 11,9 C 11,7 C 10,6 C 95 % 15 lf 1005,2 hPa 0,0 l/m 0 min 2 min 0 W/m 12,6 km/h (3 Bft) 93,62 %
22.09.2015 03:34 11,9 C 11,7 C 10,6 C 95 % 15 lf 1005,1 hPa 0,0 l/m 0 min 2 min 0 W/m 14,6 km/h (3 Bft) 91,49 %
22.09.2015 03:36 11,9 C 11,7 C 10,6 C 95 % 15 lf 1005,0 hPa 0,0 l/m 0 min 2 min 0 W/m 12,6 km/h (3 Bft) 93,62 %
22.09.2015 03:38 11,9 C 11,7 C 10,6 C 95 % 15 lf 1005,1 hPa 0,0 l/m 0 min 2 min 0 W/m 23,0 km/h (4 Bft) 93,62 %
22.09.2015 03:40 11,9 C 11,7 C 10,6 C 95 % 15 lf 1005,0 hPa 0,0 l/m 0 min 2 min 0 W/m 20,9 km/h (4 Bft) 91,30 %
22.09.2015 03:42 11,9 C 11,7 C 10,6 C 95 % 15 lf 1004,9 hPa 0,0 l/m 0 min 0 min 0 W/m 14,6 km/h (3 Bft) 93,62 %
22.09.2015 03:44 11,9 C 11,7 C 10,6 C 95 % 15 lf 1005,0 hPa 0,0 l/m 0 min 0 min 0 W/m 14,6 km/h (3 Bft) 91,49 %
22.09.2015 03:46 11,9 C 11,7 C 10,6 C 95 % 15 lf 1004,9 hPa 0,0 l/m 0 min 0 min 0 W/m 14,6 km/h (3 Bft) 91,49 %
22.09.2015 03:48 11,9 C 11,7 C 10,6 C 95 % 15 lf 1004,9 hPa 0,0 l/m 0 min 0 min 0 W/m 16,7 km/h (3 Bft) 91,49 %
22.09.2015 03:50 11,9 C 11,7 C 10,6 C 95 % 15 lf 1004,9 hPa 0,0 l/m 0 min 0 min 0 W/m 14,6 km/h (3 Bft) 93,62 %
22.09.2015 03:52 11,9 C 11,7 C 10,6 C 95 % 15 lf 1004,8 hPa 0,0 l/m 0 min 0 min 0 W/m 20,9 km/h (4 Bft) 91,30 %
22.09.2015 03:54 11,9 C 11,7 C 10,6 C 95 % 15 lf 1004,9 hPa 0,0 l/m 0 min 0 min 0 W/m 10,5 km/h (2 Bft) 97,87 %
22.09.2015 03:56 11,9 C 11,7 C 10,6 C 95 % 15 lf 1004,8 hPa 0,0 l/m 0 min 0 min 0 W/m 12,6 km/h (3 Bft) 93,62 %
22.09.2015 03:58 11,9 C 11,7 C 10,6 C 95 % 15 lf 1004,8 hPa 0,0 l/m 0 min 0 min 0 W/m 14,6 km/h (3 Bft) 87,23 %
22.09.2015 04:00 11,9 C 11,7 C 10,6 C 95 % 15 lf 1004,7 hPa 0,0 l/m 0 min 0 min 0 W/m 16,7 km/h (3 Bft) 93,62 %
22.09.2015 04:05 11,9 C 11,7 C 10,6 C 95 % 15 lf 1004,7 hPa 0,0 l/m 0 min 0 min 0 W/m 18,8 km/h (3 Bft) 93,94 %
22.09.2015 04:06 11,9 C 11,7 C 10,6 C 95 % 15 lf 1004,7 hPa 0,0 l/m 0 min 0 min 0 W/m 16,7 km/h (3 Bft) 95,65 %
22.09.2015 04:08 11,9 C 11,7 C 10,6 C 95 % 15 lf 1004,7 hPa 0,0 l/m 0 min 0 min 0 W/m 16,7 km/h (3 Bft) 95,74 %
22.09.2015 04:10 11,9 C 11,7 C 10,6 C 95 % 15 lf 1004,6 hPa 0,0 l/m 0 min 0 min 0 W/m 14,6 km/h (3 Bft) 95,74 %
22.09.2015 04:12 11,9 C 11,7 C 10,6 C 95 % 15 lf 1004,7 hPa 0,0 l/m 0 min 0 min 0 W/m 14,6 km/h (3 Bft) 95,74 %
22.09.2015 04:14 11,9 C 11,7 C 10,6 C 95 % 15 lf 1004,6 hPa 0,0 l/m 0 min 0 min 0 W/m 16,7 km/h (3 Bft) 95,65 %
22.09.2015 04:16 11,9 C 11,7 C 10,6 C 95 % 15 lf 1004,6 hPa 0,0 l/m 0 min 0 min 0 W/m 14,6 km/h (3 Bft) 95,74 %
22.09.2015 04:18 11,9 C 11,7 C 10,6 C 95 % 15 lf 1004,6 hPa 0,0 l/m 0 min 0 min 0 W/m 20,9 km/h (4 Bft) 95,74 %
22.09.2015 04:20 11,9 C 11,7 C 10,6 C 96 % 15 lf 1004,6 hPa 0,0 l/m 0 min 0 min 0 W/m 10,5 km/h (2 Bft) 95,74 %
22.09.2015 04:22 11,9 C 11,7 C 10,6 C 96 % 15 lf 1004,6 hPa 0,0 l/m 0 min 0 min 0 W/m 16,7 km/h (3 Bft) 97,87 %
22.09.2015 04:24 11,9 C 11,7 C 10,6 C 96 % 15 lf 1004,5 hPa 0,0 l/m 0 min 0 min 0 W/m 16,7 km/h (3 Bft) 100,00 %
22.09.2015 04:26 11,9 C 11,7 C 10,6 C 96 % 15 lf 1004,6 hPa 0,0 l/m 0 min 0 min 0 W/m 16,7 km/h (3 Bft) 95,65 %
22.09.2015 04:28 11,9 C 11,7 C 10,6 C 96 % 15 lf 1004,5 hPa 0,0 l/m 0 min 0 min 0 W/m 16,7 km/h (3 Bft) 95,74 %
22.09.2015 04:30 11,9 C 11,7 C 10,6 C 96 % 15 lf 1004,5 hPa 0,0 l/m 0 min 0 min 0 W/m 20,9 km/h (4 Bft) 95,74 %
22.09.2015 04:32 11,9 C 11,7 C 10,6 C 96 % 15 lf 1004,5 hPa 0,0 l/m 0 min 0 min 0 W/m 14,6 km/h (3 Bft) 97,87 %
22.09.2015 04:34 11,9 C 11,7 C 10,6 C 96 % 15 lf 1004,5 hPa 0,0 l/m 0 min 0 min 0 W/m 16,7 km/h (3 Bft) 100,00 %
22.09.2015 04:36 11,9 C 11,7 C 10,6 C 96 % 15 lf 1004,5 hPa 0,0 l/m 0 min 0 min 0 W/m 16,7 km/h (3 Bft) 97,87 %
22.09.2015 04:38 11,9 C 11,7 C 10,6 C 96 % 15 lf 1004,5 hPa 0,0 l/m 0 min 0 min 0 W/m 14,6 km/h (3 Bft) 97,83 %
22.09.2015 04:40 11,9 C 11,7 C 10,6 C 96 % 15 lf 1004,5 hPa 0,0 l/m 0 min 0 min 0 W/m 14,6 km/h (3 Bft) 97,87 %
22.09.2015 04:42 11,9 C 11,7 C 10,6 C 96 % 15 lf 1004,5 hPa 0,0 l/m 0 min 0 min 0 W/m 16,7 km/h (3 Bft) 100,00 %
22.09.2015 04:44 11,9 C 11,7 C 10,6 C 96 % 15 lf 1004,5 hPa 0,0 l/m 0 min 0 min 0 W/m 14,6 km/h (3 Bft) 97,87 %
22.09.2015 04:46 11,9 C 11,7 C 10,6 C 96 % 15 lf 1004,4 hPa 0,0 l/m 0 min 0 min 0 W/m 14,6 km/h (3 Bft) 100,00 %
22.09.2015 04:48 11,9 C 11,7 C 10,6 C 96 % 15 lf 1004,4 hPa 0,0 l/m 0 min 0 min 0 W/m 16,7 km/h (3 Bft) 100,00 %
22.09.2015 04:50 11,9 C 11,7 C 10,6 C 96 % 15 lf 1004,4 hPa 0,0 l/m 0 min 0 min 0 W/m 14,6 km/h (3 Bft) 95,65 %
22.09.2015 04:52 11,9 C 11,7 C 10,6 C 96 % 15 lf 1004,3 hPa 0,0 l/m 0 min 0 min 0 W/m 10,5 km/h (2 Bft) 97,87 %
22.09.2015 04:54 11,9 C 11,7 C 10,6 C 96 % 15 lf 1004,4 hPa 0,0 l/m 0 min 0 min 0 W/m 14,6 km/h (3 Bft) 100,00 %
22.09.2015 04:56 12,0 C 11,7 C 10,6 C 96 % 15 lf 1004,3 hPa 0,0 l/m 0 min 0 min 0 W/m 12,6 km/h (3 Bft) 100,00 %
22.09.2015 04:58 12,0 C 11,7 C 10,6 C 96 % 15 lf 1004,3 hPa 0,0 l/m 0 min 0 min 0 W/m 14,6 km/h (3 Bft) 100,00 %
22.09.2015 05:00 12,0 C 11,7 C 10,6 C 96 % 15 lf 1004,3 hPa 0,0 l/m 0 min 0 min 0 W/m 10,5 km/h (2 Bft) 97,87 %
22.09.2015 05:02 12,0 C 11,7 C 10,6 C 96 % 15 lf 1004,2 hPa 0,0 l/m 0 min 0 min 0 W/m 14,6 km/h (3 Bft) 97,83 %
22.09.2015 05:04 12,0 C 11,7 C 10,6 C 96 % 15 lf 1004,2 hPa 0,0 l/m 0 min 0 min 0 W/m 14,6 km/h (3 Bft) 97,87 %
22.09.2015 05:06 12,0 C 11,7 C 10,6 C 96 % 15 lf 1004,2 hPa 0,0 l/m 0 min 0 min 0 W/m 23,0 km/h (4 Bft) 100,00 %
22.09.2015 05:08 12,0 C 11,7 C 10,6 C 96 % 15 lf 1004,2 hPa 0,0 l/m 0 min 0 min 0 W/m 16,7 km/h (3 Bft) 97,87 %
22.09.2015 05:10 12,0 C 11,7 C 10,6 C 96 % 15 lf 1004,2 hPa 0,0 l/m 0 min 0 min 0 W/m 14,6 km/h (3 Bft) 100,00 %
22.09.2015 05:12 12,0 C 11,7 C 10,6 C 96 % 15 lf 1004,2 hPa 0,0 l/m 0 min 0 min 0 W/m 10,5 km/h (2 Bft) 100,00 %
22.09.2015 05:14 12,0 C 11,7 C 10,6 C 96 % 15 lf 1004,1 hPa 0,0 l/m 0 min 0 min 0 W/m 8,4 km/h (2 Bft) 100,00 %
22.09.2015 05:16 12,1 C 11,7 C 10,6 C 96 % 15 lf 1004,1 hPa 0,0 l/m 0 min 0 min 0 W/m 12,6 km/h (3 Bft) 100,00 %
22.09.2015 05:18 12,1 C 11,7 C 10,6 C 96 % 15 lf 1004,1 hPa 0,0 l/m 0 min 0 min 0 W/m 14,6 km/h (3 Bft) 95,74 %
22.09.2015 05:20 12,1 C 11,7 C 10,6 C 96 % 15 lf 1004,0 hPa 0,0 l/m 0 min 0 min 0 W/m 6,3 km/h (2 Bft) 95,74 %
22.09.2015 05:22 12,1 C 11,7 C 10,6 C 96 % 15 lf 1004,0 hPa 0,0 l/m 0 min 0 min 0 W/m 14,6 km/h (3 Bft) 97,87 %
22.09.2015 05:24 12,1 C 11,7 C 10,6 C 96 % 15 lf 1004,1 hPa 0,0 l/m 0 min 0 min 0 W/m 16,7 km/h (3 Bft) 97,83 %
22.09.2015 05:26 12,1 C 11,7 C 11,1 C 96 % 15 lf 1004,1 hPa 0,0 l/m 0 min 0 min 0 W/m 10,5 km/h (2 Bft) 95,74 %
22.09.2015 05:28 12,1 C 12,2 C 11,1 C 97 % 15 lf 1004,0 hPa 0,0 l/m 0 min 0 min 0 W/m 10,5 km/h (2 Bft) 95,74 %
22.09.2015 05:30 12,1 C 12,2 C 11,1 C 97 % 15 lf 1004,0 hPa 0,0 l/m 0 min 0 min 0 W/m 10,5 km/h (2 Bft) 91,49 %
22.09.2015 05:32 12,1 C 12,2 C 11,1 C 97 % 15 lf 1004,0 hPa 0,0 l/m 0 min 0 min 0 W/m 12,6 km/h (3 Bft) 95,74 %
22.09.2015 05:34 12,1 C 12,2 C 11,1 C 97 % 15 lf 1003,9 hPa 0,0 l/m 0 min 0 min 0 W/m 10,5 km/h (2 Bft) 93,62 %
22.09.2015 05:36 12,1 C 12,2 C 11,1 C 97 % 15 lf 1004,0 hPa 0,0 l/m 0 min 0 min 0 W/m 10,5 km/h (2 Bft) 93,48 %
22.09.2015 05:38 12,1 C 12,2 C 11,1 C 97 % 15 lf 1003,9 hPa 0,0 l/m 0 min 0 min 0 W/m 10,5 km/h (2 Bft) 93,62 %
22.09.2015 05:40 12,2 C 12,2 C 11,1 C 97 % 15 lf 1003,9 hPa 0,0 l/m 0 min 0 min 0 W/m 10,5 km/h (2 Bft) 95,74 %
22.09.2015 05:42 12,2 C 12,2 C 11,1 C 97 % 15 lf 1003,9 hPa 0,0 l/m 0 min 0 min 0 W/m 10,5 km/h (2 Bft) 93,62 %
22.09.2015 05:44 12,2 C 12,2 C 11,1 C 97 % 15 lf 1003,9 hPa 0,0 l/m 0 min 0 min 0 W/m 12,6 km/h (3 Bft) 95,74 %
22.09.2015 05:46 12,2 C 12,2 C 11,1 C 97 % 15 lf 1003,9 hPa 0,0 l/m 0 min 0 min 0 W/m 18,8 km/h (3 Bft) 95,74 %
22.09.2015 05:48 12,2 C 12,2 C 11,1 C 97 % 15 lf 1003,9 hPa 0,0 l/m 0 min 0 min 0 W/m 20,9 km/h (4 Bft) 95,65 %
22.09.2015 05:50 12,2 C 12,2 C 11,1 C 97 % 15 lf 1003,8 hPa 0,0 l/m 0 min 0 min 0 W/m 14,6 km/h (3 Bft) 95,74 %
22.09.2015 05:52 12,2 C 12,2 C 11,1 C 97 % 15 lf 1003,8 hPa 0,0 l/m 0 min 0 min 0 W/m 12,6 km/h (3 Bft) 95,74 %
22.09.2015 05:54 12,2 C 12,2 C 11,1 C 97 % 15 lf 1003,8 hPa 0,0 l/m 0 min 0 min 0 W/m 14,6 km/h (3 Bft) 93,62 %
22.09.2015 05:56 12,2 C 12,2 C 11,1 C 97 % 15 lf 1003,8 hPa 0,0 l/m 0 min 0 min 0 W/m 12,6 km/h (3 Bft) 97,87 %
22.09.2015 05:58 12,2 C 12,2 C 11,1 C 97 % 15 lf 1003,8 hPa 0,0 l/m 0 min 0 min 0 W/m 14,6 km/h (3 Bft) 95,74 %
22.09.2015 06:00 12,3 C 12,2 C 11,1 C 97 % 15 lf 1003,7 hPa 0,0 l/m 0 min 0 min 0 W/m 16,7 km/h (3 Bft) 97,83 %
22.09.2015 06:02 12,3 C 12,2 C 11,1 C 97 % 15 lf 1003,7 hPa 0,0 l/m 0 min 0 min 0 W/m 12,6 km/h (3 Bft) 97,87 %
22.09.2015 06:04 12,3 C 12,2 C 11,1 C 97 % 15 lf 1003,6 hPa 0,0 l/m 0 min 0 min 0 W/m 14,6 km/h (3 Bft) 97,92 %
22.09.2015 06:06 12,3 C 12,2 C 11,1 C 97 % 15 lf 1003,6 hPa 0,0 l/m 0 min 0 min 0 W/m 14,6 km/h (3 Bft) 97,87 %
22.09.2015 06:08 12,3 C 12,2 C 11,1 C 97 % 15 lf 1003,5 hPa 0,0 l/m 0 min 0 min 0 W/m 23,0 km/h (4 Bft) 100,00 %
22.09.2015 06:10 12,3 C 12,2 C 11,1 C 97 % 15 lf 1003,5 hPa 0,0 l/m 0 min 0 min 0 W/m 16,7 km/h (3 Bft) 100,00 %
22.09.2015 06:12 12,3 C 12,2 C 11,1 C 97 % 15 lf 1003,5 hPa 0,0 l/m 0 min 0 min 0 W/m 14,6 km/h (3 Bft) 100,00 %
22.09.2015 06:14 12,3 C 12,2 C 11,1 C 97 % 15 lf 1003,5 hPa 0,0 l/m 0 min 0 min 0 W/m 14,6 km/h (3 Bft) 100,00 %
22.09.2015 06:16 12,3 C 12,2 C 11,1 C 97 % 15 lf 1003,4 hPa 0,0 l/m 0 min 0 min 0 W/m 14,6 km/h (3 Bft) 97,87 %
22.09.2015 06:18 12,3 C 12,2 C 11,1 C 97 % 15 lf 1003,4 hPa 0,0 l/m 0 min 0 min 0 W/m 14,6 km/h (3 Bft) 97,87 %
22.09.2015 06:20 12,3 C 12,2 C 11,1 C 97 % 15 lf 1003,4 hPa 0,0 l/m 0 min 0 min 0 W/m 18,8 km/h (3 Bft) 95,74 %
22.09.2015 06:22 12,3 C 12,2 C 11,1 C 97 % 15 lf 1003,3 hPa 0,0 l/m 0 min 0 min 0 W/m 14,6 km/h (3 Bft) 100,00 %
22.09.2015 06:24 12,3 C 12,2 C 11,1 C 97 % 15 lf 1003,3 hPa 0,0 l/m 0 min 0 min 0 W/m 16,7 km/h (3 Bft) 100,00 %
22.09.2015 06:26 12,3 C 12,2 C 10,6 C 97 % 15 lf 1003,2 hPa 0,0 l/m 0 min 0 min 0 W/m 14,6 km/h (3 Bft) 95,74 %
22.09.2015 06:28 12,3 C 12,2 C 10,6 C 97 % 15 lf 1003,1 hPa 0,0 l/m 0 min 0 min 0 W/m 8,4 km/h (2 Bft) 100,00 %
22.09.2015 06:30 12,3 C 12,2 C 10,6 C 97 % 15 lf 1003,0 hPa 0,0 l/m 0 min 0 min 0 W/m 14,6 km/h (3 Bft) 97,87 %
22.09.2015 06:32 12,3 C 11,7 C 10,6 C 97 % 15 lf 1003,1 hPa 0,0 l/m 0 min 0 min 0 W/m 10,5 km/h (2 Bft) 97,87 %
22.09.2015 06:34 12,3 C 11,7 C 10,6 C 97 % 15 lf 1003,0 hPa 0,0 l/m 0 min 0 min 0 W/m 10,5 km/h (2 Bft) 97,87 %
22.09.2015 06:36 12,3 C 11,7 C 10,6 C 97 % 15 lf 1003,0 hPa 0,0 l/m 0 min 0 min 0 W/m 8,4 km/h (2 Bft) 95,65 %
22.09.2015 06:38 12,3 C 11,7 C 10,6 C 97 % 15 lf 1003,0 hPa 0,0 l/m 0 min 0 min 0 W/m 16,7 km/h (3 Bft) 95,74 %
22.09.2015 06:40 12,3 C 11,7 C 10,6 C 97 % 15 lf 1002,9 hPa 0,0 l/m 0 min 0 min 0 W/m 18,8 km/h (3 Bft) 95,74 %
22.09.2015 06:42 12,2 C 11,7 C 10,6 C 97 % 15 lf 1002,9 hPa 0,0 l/m 0 min 0 min 0 W/m 16,7 km/h (3 Bft) 95,74 %
22.09.2015 06:44 12,2 C 11,7 C 10,6 C 97 % 15 lf 1002,9 hPa 0,0 l/m 0 min 0 min 0 W/m 14,6 km/h (3 Bft) 91,49 %
22.09.2015 06:46 12,2 C 11,7 C 10,6 C 97 % 15 lf 1002,9 hPa 0,0 l/m 0 min 2 min 0 W/m 14,6 km/h (3 Bft) 97,83 %
22.09.2015 06:48 12,2 C 11,7 C 10,6 C 97 % 15 lf 1002,8 hPa 0,0 l/m 0 min 0 min 0 W/m 8,4 km/h (2 Bft) 95,74 %
22.09.2015 06:50 12,2 C 11,7 C 10,6 C 97 % 15 lf 1002,8 hPa 0,0 l/m 0 min 0 min 0 W/m 10,5 km/h (2 Bft) 95,74 %
22.09.2015 06:52 12,2 C 11,7 C 10,6 C 97 % 15 lf 1002,8 hPa 0,0 l/m 0 min 0 min 0 W/m 14,6 km/h (3 Bft) 95,74 %
22.09.2015 06:54 12,2 C 11,7 C 10,6 C 97 % 15 lf 1002,9 hPa 0,0 l/m 0 min 0 min 0 W/m 12,6 km/h (3 Bft) 97,87 %
22.09.2015 06:56 12,2 C 11,7 C 10,6 C 97 % 15 lf 1002,9 hPa 0,0 l/m 0 min 0 min 0 W/m 10,5 km/h (2 Bft) 100,00 %
22.09.2015 06:58 12,2 C 11,7 C 10,6 C 97 % 15 lf 1002,9 hPa 0,0 l/m 0 min 0 min 0 W/m 8,4 km/h (2 Bft) 95,65 %
22.09.2015 07:00 12,1 C 11,7 C 10,6 C 97 % 15 lf 1002,9 hPa 0,0 l/m 0 min 0 min 0 W/m 14,6 km/h (3 Bft) 91,49 %
22.09.2015 07:02 12,1 C 11,7 C 10,6 C 97 % 15 lf 1002,9 hPa 0,0 l/m 0 min 0 min 0 W/m 8,4 km/h (2 Bft) 95,74 %
22.09.2015 07:04 12,1 C 11,7 C 10,6 C 97 % 15 lf 1002,8 hPa 0,0 l/m 0 min 0 min 0 W/m 12,6 km/h (3 Bft) 95,74 %
22.09.2015 07:06 12,1 C 11,7 C 10,6 C 97 % 15 lf 1002,9 hPa 0,0 l/m 0 min 0 min 0 W/m 12,6 km/h (3 Bft) 93,62 %
22.09.2015 07:08 12,1 C 11,7 C 10,6 C 97 % 15 lf 1002,9 hPa 0,0 l/m 0 min 0 min 0 W/m 8,4 km/h (2 Bft) 95,74 %
22.09.2015 07:10 12,1 C 11,7 C 10,6 C 97 % 15 lf 1002,8 hPa 0,0 l/m 0 min 0 min 0 W/m 10,5 km/h (2 Bft) 95,65 %
22.09.2015 07:12 12,1 C 11,7 C 10,6 C 97 % 15 lf 1002,9 hPa 0,0 l/m 0 min 0 min 0 W/m 8,4 km/h (2 Bft) 95,74 %
22.09.2015 07:14 12,1 C 11,7 C 10,6 C 97 % 15 lf 1002,9 hPa 0,0 l/m 0 min 0 min 1 W/m 12,6 km/h (3 Bft) 91,49 %
22.09.2015 07:16 12,1 C 11,7 C 10,6 C 97 % 15 lf 1002,8 hPa 0,0 l/m 0 min 0 min 6 W/m 14,6 km/h (3 Bft) 95,74 %
22.09.2015 07:18 12,1 C 11,7 C 10,6 C 97 % 15 lf 1002,8 hPa 0,0 l/m 0 min 0 min 7 W/m 16,7 km/h (3 Bft) 93,62 %
22.09.2015 07:20 12,0 C 11,7 C 10,6 C 97 % 15 lf 1002,8 hPa 0,0 l/m 0 min 0 min 9 W/m 12,6 km/h (3 Bft) 91,49 %
22.09.2015 07:22 12,0 C 11,7 C 10,6 C 97 % 15 lf 1002,8 hPa 0,0 l/m 0 min 0 min 10 W/m 10,5 km/h (2 Bft) 93,48 %
22.09.2015 07:24 12,0 C 11,7 C 10,6 C 97 % 15 lf 1002,7 hPa 0,0 l/m 0 min 0 min 11 W/m 8,4 km/h (2 Bft) 95,74 %
22.09.2015 07:26 12,0 C 11,7 C 10,6 C 97 % 15 lf 1002,8 hPa 0,0 l/m 0 min 0 min 12 W/m 14,6 km/h (3 Bft) 95,74 %
22.09.2015 07:28 12,0 C 11,7 C 10,6 C 97 % 15 lf 1002,8 hPa 0,0 l/m 0 min 0 min 13 W/m 10,5 km/h (2 Bft) 95,74 %
22.09.2015 07:30 12,0 C 11,7 C 10,6 C 97 % 15 lf 1002,8 hPa 0,0 l/m 0 min 0 min 16 W/m 12,6 km/h (3 Bft) 93,62 %
22.09.2015 07:32 12,0 C 11,7 C 10,6 C 97 % 15 lf 1002,8 hPa 0,0 l/m 0 min 0 min 18 W/m 10,5 km/h (2 Bft) 93,48 %
22.09.2015 07:34 12,0 C 11,7 C 10,6 C 97 % 15 lf 1002,9 hPa 0,0 l/m 2 min 0 min 21 W/m 10,5 km/h (2 Bft) 89,36 %
22.09.2015 07:36 12,0 C 11,7 C 10,6 C 97 % 15 lf 1002,8 hPa 0,0 l/m 2 min 0 min 25 W/m 8,4 km/h (2 Bft) 91,49 %
22.09.2015 07:38 12,0 C 11,7 C 10,6 C 97 % 15 lf 1002,7 hPa 0,0 l/m 2 min 0 min 28 W/m 8,4 km/h (2 Bft) 97,87 %
22.09.2015 07:40 12,0 C 11,7 C 10,6 C 97 % 15 lf 1002,8 hPa 0,0 l/m 2 min 0 min 34 W/m 10,5 km/h (2 Bft) 95,74 %
22.09.2015 07:42 12,0 C 11,7 C 10,6 C 97 % 15 lf 1002,8 hPa 0,0 l/m 2 min 0 min 40 W/m 8,4 km/h (2 Bft) 95,74 %
22.09.2015 07:44 12,0 C 12,2 C 10,6 C 97 % 15 lf 1002,8 hPa 0,0 l/m 2 min 0 min 48 W/m 10,5 km/h (2 Bft) 95,65 %
22.09.2015 07:46 12,0 C 12,2 C 11,1 C 97 % 15 lf 1002,8 hPa 0,0 l/m 2 min 0 min 55 W/m 10,5 km/h (2 Bft) 93,62 %
22.09.2015 07:48 12,0 C 12,2 C 11,1 C 97 % 15 lf 1002,8 hPa 0,0 l/m 2 min 0 min 62 W/m 12,6 km/h (3 Bft) 95,74 %
22.09.2015 07:50 12,0 C 12,2 C 11,1 C 97 % 15 lf 1002,8 hPa 0,0 l/m 2 min 0 min 70 W/m 10,5 km/h (2 Bft) 93,62 %
22.09.2015 07:52 12,0 C 12,2 C 11,1 C 97 % 15 lf 1002,7 hPa 0,0 l/m 2 min 0 min 88 W/m 12,6 km/h (3 Bft) 95,74 %
22.09.2015 07:54 12,1 C 12,2 C 11,1 C 97 % 15 lf 1002,6 hPa 0,0 l/m 2 min 0 min 86 W/m 8,4 km/h (2 Bft) 95,74 %
22.09.2015 07:56 12,1 C 12,2 C 11,7 C 97 % 15 lf 1002,5 hPa 0,0 l/m 2 min 0 min 69 W/m 14,6 km/h (3 Bft) 95,74 %
22.09.2015 07:58 12,1 C 12,2 C 11,7 C 97 % 14 lf 1002,5 hPa 0,0 l/m 2 min 0 min 52 W/m 8,4 km/h (2 Bft) 95,65 %
22.09.2015 08:00 12,2 C 12,2 C 11,7 C 97 % 14 lf 1002,6 hPa 0,0 l/m 0 min 0 min 45 W/m 10,5 km/h (2 Bft) 97,87 %
22.09.2015 08:02 12,2 C 12,2 C 11,7 C 97 % 13 lf 1002,6 hPa 0,0 l/m 0 min 0 min 44 W/m 10,5 km/h (2 Bft) 95,74 %
22.09.2015 08:04 12,2 C 12,2 C 11,7 C 97 % 13 lf 1002,7 hPa 0,0 l/m 0 min 0 min 41 W/m 12,6 km/h (3 Bft) 97,87 %
22.09.2015 08:06 12,2 C 12,2 C 11,7 C 97 % 12 lf 1002,6 hPa 0,0 l/m 0 min 0 min 41 W/m 10,5 km/h (2 Bft) 95,74 %
22.09.2015 08:08 12,3 C 12,2 C 11,7 C 97 % 12 lf 1002,7 hPa 0,0 l/m 0 min 0 min 44 W/m 16,7 km/h (3 Bft) 91,30 %
22.09.2015 08:10 12,3 C 12,2 C 11,7 C 97 % 11 lf 1002,7 hPa 0,0 l/m 0 min 0 min 38 W/m 10,5 km/h (2 Bft) 95,74 %
22.09.2015 08:12 12,3 C 12,2 C 11,7 C 97 % 10 lf 1002,6 hPa 0,0 l/m 0 min 0 min 30 W/m 10,5 km/h (2 Bft) 97,87 %
22.09.2015 08:14 12,3 C 12,2 C 11,7 C 97 % 9 lf 1002,6 hPa 0,0 l/m 0 min 0 min 26 W/m 14,6 km/h (3 Bft) 97,87 %
22.09.2015 08:16 12,3 C 12,2 C 11,7 C 97 % 8 lf 1002,5 hPa 0,0 l/m 0 min 0 min 25 W/m 6,3 km/h (2 Bft) 97,87 %
22.09.2015 08:18 12,3 C 12,2 C 11,1 C 97 % 6 lf 1002,5 hPa 0,0 l/m 0 min 0 min 25 W/m 16,7 km/h (3 Bft) 95,74 %
22.09.2015 08:20 12,3 C 12,2 C 11,1 C 97 % 4 lf 1002,5 hPa 0,0 l/m 0 min 0 min 26 W/m 16,7 km/h (3 Bft) 95,65 %
22.09.2015 08:22 12,3 C 12,2 C 11,1 C 97 % 4 lf 1002,5 hPa 0,0 l/m 0 min 0 min 29 W/m 12,6 km/h (3 Bft) 97,87 %
22.09.2015 08:24 12,3 C 12,2 C 11,7 C 97 % 3 lf 1002,4 hPa 0,0 l/m 0 min 0 min 33 W/m 18,8 km/h (3 Bft) 87,23 %
22.09.2015 08:26 12,3 C 12,2 C 11,7 C 97 % 3 lf 1002,4 hPa 0,0 l/m 0 min 0 min 37 W/m 8,4 km/h (2 Bft) 97,87 %
22.09.2015 08:28 12,3 C 12,2 C 11,7 C 97 % 2 lf 1002,4 hPa 0,0 l/m 0 min 0 min 39 W/m 12,6 km/h (3 Bft) 97,87 %
22.09.2015 08:30 12,3 C 12,2 C 11,7 C 97 % 2 lf 1002,4 hPa 0,0 l/m 0 min 0 min 39 W/m 10,5 km/h (2 Bft) 95,74 %
22.09.2015 08:32 12,3 C 12,2 C 11,7 C 97 % 2 lf 1002,4 hPa 0,0 l/m 0 min 0 min 33 W/m 10,5 km/h (2 Bft) 95,65 %
22.09.2015 08:34 12,4 C 12,2 C 11,7 C 97 % 1 lf 1002,4 hPa 0,0 l/m 0 min 0 min 30 W/m 12,6 km/h (3 Bft) 97,87 %
22.09.2015 08:36 12,4 C 12,2 C 11,7 C 97 % 1 lf 1002,4 hPa 0,0 l/m 0 min 0 min 28 W/m 8,4 km/h (2 Bft) 97,87 %
22.09.2015 08:38 12,4 C 12,2 C 11,7 C 97 % 1 lf 1002,4 hPa 0,0 l/m 0 min 0 min 32 W/m 12,6 km/h (3 Bft) 97,87 %
22.09.2015 08:40 12,4 C 12,2 C 11,7 C 97 % 1 lf 1002,4 hPa 0,0 l/m 0 min 0 min 34 W/m 10,5 km/h (2 Bft) 95,74 %
22.09.2015 08:42 12,4 C 12,2 C 11,7 C 97 % 1 lf 1002,4 hPa 0,0 l/m 0 min 0 min 36 W/m 10,5 km/h (2 Bft) 97,87 %
22.09.2015 08:44 12,4 C 12,2 C 11,7 C 97 % 1 lf 1002,4 hPa 0,0 l/m 0 min 0 min 39 W/m 12,6 km/h (3 Bft) 97,83 %
22.09.2015 08:46 12,4 C 12,2 C 11,7 C 97 % 1 lf 1002,4 hPa 0,0 l/m 0 min 0 min 39 W/m 10,5 km/h (2 Bft) 97,87 %
22.09.2015 08:48 12,4 C 12,2 C 11,7 C 97 % 1 lf 1002,3 hPa 0,0 l/m 0 min 0 min 36 W/m 16,7 km/h (3 Bft) 97,87 %
22.09.2015 08:50 12,4 C 12,2 C 11,7 C 97 % 1 lf 1002,3 hPa 0,0 l/m 0 min 0 min 30 W/m 14,6 km/h (3 Bft) 97,87 %
22.09.2015 08:52 12,4 C 12,2 C 11,7 C 97 % 1 lf 1002,3 hPa 0,0 l/m 0 min 0 min 26 W/m 12,6 km/h (3 Bft) 97,87 %
22.09.2015 08:54 12,4 C 12,2 C 11,7 C 97 % 1 lf 1002,3 hPa 0,0 l/m 0 min 0 min 24 W/m 12,6 km/h (3 Bft) 97,83 %
22.09.2015 08:56 12,4 C 12,2 C 11,7 C 97 % 6 lf 1002,3 hPa 0,2 l/m 0 min 2 min 22 W/m 18,8 km/h (3 Bft) 100,00 %
22.09.2015 08:58 12,4 C 12,2 C 11,1 C 97 % 9 lf 1002,3 hPa 0,0 l/m 0 min 2 min 20 W/m 16,7 km/h (3 Bft) 91,49 %
22.09.2015 09:00 12,4 C 12,2 C 11,1 C 97 % 13 lf 1002,3 hPa 0,0 l/m 0 min 2 min 20 W/m 12,6 km/h (3 Bft) 97,87 %
22.09.2015 09:02 12,4 C 12,2 C 11,1 C 97 % 15 lf 1002,3 hPa 0,2 l/m 0 min 2 min 23 W/m 10,5 km/h (2 Bft) 97,87 %
22.09.2015 09:04 12,4 C 12,2 C 11,1 C 97 % 15 lf 1002,2 hPa 0,0 l/m 0 min 2 min 26 W/m 10,5 km/h (2 Bft) 97,87 %
22.09.2015 09:06 12,4 C 12,2 C 11,1 C 97 % 15 lf 1002,2 hPa 0,0 l/m 0 min 2 min 27 W/m 12,6 km/h (3 Bft) 100,00 %
22.09.2015 09:08 12,4 C 12,2 C 11,1 C 97 % 15 lf 1002,0 hPa 0,0 l/m 0 min 2 min 26 W/m 10,5 km/h (2 Bft) 100,00 %
22.09.2015 09:10 12,4 C 12,2 C 11,1 C 97 % 15 lf 1001,9 hPa 0,0 l/m 0 min 2 min 26 W/m 10,5 km/h (2 Bft) 97,87 %
22.09.2015 09:12 12,4 C 12,2 C 11,1 C 97 % 15 lf 1002,0 hPa 0,0 l/m 0 min 2 min 26 W/m 10,5 km/h (2 Bft) 97,87 %
22.09.2015 09:14 12,4 C 12,2 C 11,1 C 97 % 15 lf 1001,9 hPa 0,0 l/m 0 min 2 min 33 W/m 6,3 km/h (2 Bft) 97,87 %
22.09.2015 09:16 12,4 C 12,2 C 11,1 C 97 % 15 lf 1001,9 hPa 0,0 l/m 0 min 2 min 44 W/m 12,6 km/h (3 Bft) 97,87 %
22.09.2015 09:18 12,4 C 12,2 C 11,1 C 97 % 15 lf 1001,9 hPa 0,2 l/m 0 min 2 min 52 W/m 14,6 km/h (3 Bft) 93,48 %
22.09.2015 09:20 12,4 C 12,2 C 11,1 C 97 % 15 lf 1001,9 hPa 0,0 l/m 0 min 2 min 54 W/m 8,4 km/h (2 Bft) 95,74 %
22.09.2015 09:22 12,4 C 12,2 C 11,1 C 97 % 15 lf 1002,0 hPa 0,0 l/m 0 min 2 min 61 W/m 10,5 km/h (2 Bft) 95,74 %
22.09.2015 09:24 12,5 C 12,2 C 11,1 C 97 % 15 lf 1002,0 hPa 0,0 l/m 0 min 2 min 69 W/m 12,6 km/h (3 Bft) 95,74 %
22.09.2015 09:26 12,5 C 12,8 C 11,7 C 97 % 15 lf 1002,0 hPa 0,0 l/m 0 min 2 min 70 W/m 10,5 km/h (2 Bft) 93,62 %
22.09.2015 09:28 12,5 C 12,8 C 11,7 C 97 % 15 lf 1001,9 hPa 0,0 l/m 0 min 0 min 63 W/m 10,5 km/h (2 Bft) 93,62 %
22.09.2015 09:30 12,5 C 12,8 C 11,7 C 97 % 15 lf 1002,0 hPa 0,0 l/m 0 min 0 min 56 W/m 10,5 km/h (2 Bft) 95,65 %
22.09.2015 09:32 12,6 C 12,2 C 11,7 C 97 % 15 lf 1002,0 hPa 0,0 l/m 0 min 0 min 52 W/m 12,6 km/h (3 Bft) 95,74 %
22.09.2015 09:34 12,6 C 12,2 C 11,1 C 97 % 15 lf 1002,0 hPa 0,0 l/m 0 min 0 min 49 W/m 10,5 km/h (2 Bft) 93,62 %
22.09.2015 09:36 12,6 C 12,8 C 11,7 C 97 % 15 lf 1002,0 hPa 0,0 l/m 0 min 0 min 51 W/m 10,5 km/h (2 Bft) 93,62 %
22.09.2015 09:38 12,6 C 12,8 C 11,7 C 97 % 15 lf 1002,0 hPa 0,0 l/m 0 min 0 min 55 W/m 8,4 km/h (2 Bft) 93,62 %
22.09.2015 09:40 12,6 C 12,8 C 11,7 C 97 % 15 lf 1002,1 hPa 0,0 l/m 0 min 2 min 60 W/m 10,5 km/h (2 Bft) 95,74 %
22.09.2015 09:42 12,6 C 12,8 C 11,7 C 97 % 15 lf 1002,1 hPa 0,0 l/m 0 min 2 min 66 W/m 10,5 km/h (2 Bft) 95,65 %
22.09.2015 09:44 12,6 C 12,8 C 11,7 C 97 % 15 lf 1002,0 hPa 0,0 l/m 0 min 2 min 67 W/m 10,5 km/h (2 Bft) 97,87 %
22.09.2015 09:46 12,6 C 12,8 C 11,7 C 97 % 15 lf 1001,9 hPa 0,0 l/m 0 min 2 min 69 W/m 14,6 km/h (3 Bft) 95,74 %
22.09.2015 09:48 12,6 C 12,8 C 11,7 C 97 % 14 lf 1001,8 hPa 0,0 l/m 0 min 2 min 74 W/m 6,3 km/h (2 Bft) 97,87 %
22.09.2015 09:50 12,6 C 12,8 C 11,7 C 97 % 15 lf 1001,8 hPa 0,0 l/m 0 min 2 min 76 W/m 4,2 km/h (1 Bft) 93,62 %
22.09.2015 09:52 12,7 C 12,8 C 11,7 C 97 % 15 lf 1001,8 hPa 0,0 l/m 0 min 2 min 76 W/m 6,3 km/h (2 Bft) 95,74 %
22.09.2015 09:54 12,7 C 12,8 C 11,7 C 97 % 15 lf 1001,8 hPa 0,0 l/m 0 min 2 min 76 W/m 6,3 km/h (2 Bft) 97,83 %
22.09.2015 09:56 12,7 C 12,8 C 11,7 C 97 % 14 lf 1001,9 hPa 0,0 l/m 0 min 2 min 74 W/m 8,4 km/h (2 Bft) 97,87 %
22.09.2015 09:58 12,7 C 12,8 C 11,7 C 97 % 14 lf 1001,9 hPa 0,0 l/m 0 min 2 min 69 W/m 6,3 km/h (2 Bft) 95,74 %
22.09.2015 10:00 12,7 C 12,8 C 11,7 C 97 % 14 lf 1001,9 hPa 0,0 l/m 0 min 0 min 67 W/m 8,4 km/h (2 Bft) 95,74 %
22.09.2015 10:02 12,7 C 12,8 C 11,7 C 97 % 13 lf 1001,9 hPa 0,0 l/m 0 min 0 min 65 W/m 4,2 km/h (1 Bft) 95,74 %
22.09.2015 10:04 12,7 C 12,8 C 11,7 C 97 % 13 lf 1001,9 hPa 0,0 l/m 0 min 0 min 65 W/m 8,4 km/h (2 Bft) 95,74 %
22.09.2015 10:06 12,8 C 12,8 C 11,7 C 97 % 13 lf 1002,0 hPa 0,0 l/m 0 min 0 min 64 W/m 8,4 km/h (2 Bft) 97,83 %
22.09.2015 10:08 12,8 C 12,8 C 11,7 C 97 % 13 lf 1001,9 hPa 0,0 l/m 0 min 2 min 68 W/m 6,3 km/h (2 Bft) 97,87 %
22.09.2015 10:10 12,8 C 12,8 C 11,7 C 97 % 12 lf 1001,9 hPa 0,0 l/m 0 min 0 min 71 W/m 4,2 km/h (1 Bft) 95,74 %
22.09.2015 10:12 12,8 C 12,8 C 11,7 C 97 % 12 lf 1001,9 hPa 0,0 l/m 0 min 0 min 77 W/m 4,2 km/h (1 Bft) 95,74 %
22.09.2015 10:14 12,8 C 12,8 C 11,7 C 97 % 12 lf 1001,9 hPa 0,0 l/m 0 min 0 min 84 W/m 4,2 km/h (1 Bft) 97,87 %
22.09.2015 10:16 12,8 C 12,8 C 11,7 C 97 % 11 lf 1001,8 hPa 0,0 l/m 0 min 0 min 89 W/m 6,3 km/h (2 Bft) 100,00 %
22.09.2015 10:18 12,8 C 12,8 C 11,7 C 97 % 10 lf 1001,8 hPa 0,0 l/m 0 min 0 min 91 W/m 4,2 km/h (1 Bft) 97,87 %
22.09.2015 10:20 12,8 C 12,8 C 11,7 C 97 % 9 lf 1001,8 hPa 0,0 l/m 0 min 0 min 90 W/m 4,2 km/h (1 Bft) 97,96 %
22.09.2015 10:22 12,9 C 12,8 C 12,2 C 97 % 8 lf 1001,8 hPa 0,0 l/m 0 min 0 min 90 W/m 8,4 km/h (2 Bft) 100,00 %
22.09.2015 10:24 12,9 C 12,8 C 11,7 C 97 % 7 lf 1001,8 hPa 0,0 l/m 0 min 0 min 87 W/m 6,3 km/h (2 Bft) 97,87 %
22.09.2015 10:26 12,9 C 13,3 C 11,7 C 97 % 5 lf 1001,8 hPa 0,0 l/m 0 min 0 min 84 W/m 4,2 km/h (1 Bft) 97,87 %
22.09.2015 10:28 12,9 C 13,3 C 12,2 C 97 % 4 lf 1001,8 hPa 0,0 l/m 0 min 0 min 89 W/m 4,2 km/h (1 Bft) 100,00 %
22.09.2015 10:30 12,9 C 13,3 C 12,2 C 97 % 4 lf 1001,8 hPa 0,0 l/m 0 min 0 min 93 W/m 6,3 km/h (2 Bft) 100,00 %
22.09.2015 10:32 12,9 C 12,8 C 11,7 C 97 % 3 lf 1001,8 hPa 0,0 l/m 0 min 0 min 93 W/m 10,5 km/h (2 Bft) 97,87 %
22.09.2015 10:34 13,0 C 12,8 C 12,2 C 97 % 3 lf 1001,7 hPa 0,0 l/m 0 min 0 min 93 W/m 4,2 km/h (1 Bft) 100,00 %
22.09.2015 10:36 13,0 C 12,8 C 11,7 C 97 % 2 lf 1001,7 hPa 0,0 l/m 0 min 2 min 95 W/m 8,4 km/h (2 Bft) 100,00 %
22.09.2015 10:38 13,0 C 12,8 C 11,7 C 97 % 1 lf 1001,7 hPa 0,0 l/m 0 min 0 min 98 W/m 6,3 km/h (2 Bft) 97,87 %
22.09.2015 10:40 13,0 C 12,8 C 11,7 C 97 % 0 lf 1001,7 hPa 0,0 l/m 0 min 0 min 96 W/m 12,6 km/h (3 Bft) 100,00 %
22.09.2015 10:42 13,0 C 13,3 C 12,2 C 97 % 0 lf 1001,7 hPa 0,0 l/m 0 min 0 min 90 W/m 8,4 km/h (2 Bft) 100,00 %
22.09.2015 10:44 13,0 C 13,3 C 12,2 C 97 % 1 lf 1001,7 hPa 0,0 l/m 0 min 2 min 86 W/m 6,3 km/h (2 Bft) 100,00 %
22.09.2015 10:46 13,1 C 13,3 C 12,2 C 97 % 1 lf 1001,7 hPa 0,0 l/m 0 min 2 min 90 W/m 10,5 km/h (2 Bft) 100,00 %
22.09.2015 10:48 13,1 C 13,3 C 12,2 C 97 % 1 lf 1001,6 hPa 0,0 l/m 0 min 2 min 91 W/m 6,3 km/h (2 Bft) 100,00 %
22.09.2015 10:50 13,1 C 13,3 C 12,2 C 97 % 1 lf 1001,7 hPa 0,0 l/m 0 min 2 min 93 W/m 10,5 km/h (2 Bft) 100,00 %
22.09.2015 10:52 13,1 C 13,3 C 12,2 C 97 % 1 lf 1001,7 hPa 0,0 l/m 0 min 2 min 87 W/m 8,4 km/h (2 Bft) 100,00 %
22.09.2015 10:54 13,1 C 12,8 C 12,2 C 97 % 0 lf 1001,8 hPa 0,0 l/m 0 min 2 min 76 W/m 14,6 km/h (3 Bft) 93,62 %
22.09.2015 10:56 13,1 C 12,8 C 12,2 C 97 % 0 lf 1001,7 hPa 0,0 l/m 0 min 2 min 81 W/m 10,5 km/h (2 Bft) 93,62 %
22.09.2015 10:58 13,1 C 12,8 C 11,7 C 97 % 0 lf 1001,7 hPa 0,0 l/m 0 min 2 min 82 W/m 8,4 km/h (2 Bft) 91,49 %
22.09.2015 11:00 13,1 C 12,8 C 12,2 C 97 % 0 lf 1001,7 hPa 0,0 l/m 0 min 2 min 77 W/m 10,5 km/h (2 Bft) 91,49 %
22.09.2015 11:02 13,1 C 12,8 C 11,7 C 97 % 1 lf 1001,7 hPa 0,0 l/m 0 min 2 min 70 W/m 10,5 km/h (2 Bft) 93,48 %
22.09.2015 11:04 13,1 C 12,8 C 11,7 C 97 % 1 lf 1001,7 hPa 0,0 l/m 0 min 2 min 62 W/m 12,6 km/h (3 Bft) 91,49 %
22.09.2015 11:06 13,1 C 12,8 C 11,7 C 97 % 1 lf 1001,7 hPa 0,0 l/m 0 min 2 min 59 W/m 10,5 km/h (2 Bft) 93,62 %
22.09.2015 11:08 13,1 C 12,8 C 11,7 C 97 % 2 lf 1001,7 hPa 0,0 l/m 0 min 2 min 57 W/m 8,4 km/h (2 Bft) 91,49 %
22.09.2015 11:10 13,1 C 12,8 C 11,7 C 97 % 2 lf 1001,7 hPa 0,0 l/m 0 min 2 min 53 W/m 8,4 km/h (2 Bft) 93,62 %
22.09.2015 11:12 13,1 C 12,8 C 11,7 C 97 % 1 lf 1001,7 hPa 0,0 l/m 0 min 2 min 59 W/m 10,5 km/h (2 Bft) 93,62 %
22.09.2015 11:14 13,1 C 12,8 C 11,7 C 97 % 1 lf 1001,6 hPa 0,0 l/m 0 min 2 min 72 W/m 10,5 km/h (2 Bft) 93,48 %
22.09.2015 11:16 13,1 C 12,8 C 11,7 C 97 % 3 lf 1001,7 hPa 0,2 l/m 0 min 2 min 80 W/m 12,6 km/h (3 Bft) 91,49 %
22.09.2015 11:18 13,2 C 13,3 C 12,2 C 97 % 3 lf 1001,6 hPa 0,0 l/m 0 min 2 min 74 W/m 10,5 km/h (2 Bft) 91,49 %
22.09.2015 11:20 13,2 C 12,8 C 11,7 C 97 % 3 lf 1001,7 hPa 0,0 l/m 0 min 2 min 57 W/m 8,4 km/h (2 Bft) 91,49 %
22.09.2015 11:22 13,2 C 12,8 C 11,7 C 97 % 3 lf 1001,7 hPa 0,0 l/m 0 min 2 min 48 W/m 10,5 km/h (2 Bft) 93,62 %
22.09.2015 11:24 13,2 C 12,8 C 11,7 C 97 % 4 lf 1001,6 hPa 0,0 l/m 0 min 2 min 52 W/m 10,5 km/h (2 Bft) 93,62 %
22.09.2015 11:26 13,2 C 12,8 C 11,7 C 97 % 4 lf 1001,6 hPa 0,0 l/m 0 min 2 min 58 W/m 8,4 km/h (2 Bft) 93,48 %
22.09.2015 11:28 13,2 C 12,8 C 11,7 C 97 % 3 lf 1001,6 hPa 0,0 l/m 0 min 2 min 65 W/m 8,4 km/h (2 Bft) 91,49 %
22.09.2015 11:30 13,2 C 12,8 C 11,7 C 97 % 3 lf 1001,5 hPa 0,0 l/m 0 min 2 min 73 W/m 8,4 km/h (2 Bft) 93,62 %
22.09.2015 11:32 13,2 C 12,8 C 11,7 C 97 % 3 lf 1001,5 hPa 0,0 l/m 0 min 2 min 71 W/m 8,4 km/h (2 Bft) 91,49 %
22.09.2015 11:34 13,2 C 12,8 C 12,2 C 97 % 3 lf 1001,5 hPa 0,0 l/m 0 min 2 min 78 W/m 6,3 km/h (2 Bft) 91,49 %
22.09.2015 11:36 13,2 C 12,8 C 12,2 C 97 % 4 lf 1001,5 hPa 0,0 l/m 0 min 2 min 79 W/m 6,3 km/h (2 Bft) 95,74 %
22.09.2015 11:38 13,2 C 12,8 C 12,2 C 97 % 4 lf 1001,4 hPa 0,0 l/m 0 min 2 min 71 W/m 8,4 km/h (2 Bft) 95,65 %
22.09.2015 11:40 13,2 C 12,8 C 12,2 C 97 % 4 lf 1001,4 hPa 0,0 l/m 0 min 2 min 73 W/m 6,3 km/h (2 Bft) 93,62 %
22.09.2015 11:42 13,2 C 12,8 C 11,7 C 97 % 3 lf 1001,4 hPa 0,2 l/m 0 min 2 min 75 W/m 8,4 km/h (2 Bft) 95,74 %
22.09.2015 11:44 13,2 C 12,8 C 11,7 C 97 % 4 lf 1001,4 hPa 0,0 l/m 0 min 2 min 69 W/m 12,6 km/h (3 Bft) 97,87 %
22.09.2015 11:46 13,2 C 12,8 C 11,7 C 97 % 5 lf 1001,5 hPa 0,0 l/m 0 min 2 min 68 W/m 8,4 km/h (2 Bft) 97,87 %
22.09.2015 11:48 13,2 C 12,8 C 11,7 C 97 % 7 lf 1001,5 hPa 0,2 l/m 0 min 2 min 64 W/m 10,5 km/h (2 Bft) 91,49 %
22.09.2015 11:50 13,2 C 12,8 C 11,7 C 97 % 7 lf 1001,5 hPa 0,0 l/m 0 min 2 min 58 W/m 10,5 km/h (2 Bft) 95,65 %
22.09.2015 11:52 13,2 C 12,8 C 11,7 C 97 % 8 lf 1001,5 hPa 0,2 l/m 0 min 2 min 46 W/m 10,5 km/h (2 Bft) 97,87 %
22.09.2015 11:54 13,2 C 12,8 C 11,7 C 97 % 7 lf 1001,5 hPa 0,0 l/m 0 min 2 min 41 W/m 16,7 km/h (3 Bft) 93,62 %
22.09.2015 11:56 13,2 C 12,8 C 11,7 C 97 % 7 lf 1001,4 hPa 0,2 l/m 0 min 2 min 66 W/m 14,6 km/h (3 Bft) 97,87 %
22.09.2015 11:58 13,1 C 12,8 C 11,7 C 97 % 7 lf 1001,3 hPa 0,2 l/m 0 min 2 min 87 W/m 8,4 km/h (2 Bft) 95,74 %
22.09.2015 12:00 13,1 C 12,8 C 11,7 C 97 % 8 lf 1001,3 hPa 0,0 l/m 0 min 2 min 90 W/m 12,6 km/h (3 Bft) 97,87 %
22.09.2015 12:02 13,1 C 12,8 C 11,7 C 97 % 7 lf 1001,4 hPa 0,0 l/m 0 min 2 min 52 W/m 10,5 km/h (2 Bft) 97,83 %
22.09.2015 12:06 13,1 C 12,8 C 11,7 C 97 % 8 lf 1001,4 hPa 0,2 l/m 0 min 2 min 60 W/m 12,6 km/h (3 Bft) 95,79 %
22.09.2015 12:08 13,1 C 12,8 C 11,7 C 97 % 8 lf 1001,4 hPa 0,0 l/m 0 min 2 min 69 W/m 10,5 km/h (2 Bft) 100,00 %
22.09.2015 12:10 13,1 C 12,8 C 11,7 C 97 % 8 lf 1001,3 hPa 0,0 l/m 0 min 2 min 69 W/m 8,4 km/h (2 Bft) 100,00 %
22.09.2015 12:12 13,1 C 12,8 C 11,7 C 97 % 8 lf 1001,3 hPa 0,0 l/m 0 min 2 min 63 W/m 12,6 km/h (3 Bft) 97,87 %
22.09.2015 12:14 13,1 C 12,8 C 11,7 C 97 % 9 lf 1001,3 hPa 0,0 l/m 0 min 2 min 64 W/m 12,6 km/h (3 Bft) 97,87 %
22.09.2015 12:16 13,1 C 12,8 C 11,7 C 97 % 9 lf 1001,3 hPa 0,0 l/m 0 min 2 min 64 W/m 10,5 km/h (2 Bft) 95,65 %
22.09.2015 12:18 13,1 C 12,8 C 11,7 C 97 % 8 lf 1001,3 hPa 0,0 l/m 0 min 2 min 51 W/m 8,4 km/h (2 Bft) 97,87 %
22.09.2015 12:20 13,1 C 12,8 C 11,7 C 97 % 8 lf 1001,4 hPa 0,0 l/m 0 min 2 min 39 W/m 8,4 km/h (2 Bft) 95,74 %
22.09.2015 12:22 13,1 C 12,8 C 11,7 C 97 % 8 lf 1001,3 hPa 0,0 l/m 0 min 2 min 37 W/m 12,6 km/h (3 Bft) 95,74 %
22.09.2015 12:24 13,1 C 12,8 C 11,7 C 97 % 9 lf 1001,3 hPa 0,0 l/m 0 min 2 min 51 W/m 12,6 km/h (3 Bft) 93,62 %
22.09.2015 12:26 13,1 C 12,8 C 11,7 C 97 % 10 lf 1001,3 hPa 0,2 l/m 0 min 2 min 69 W/m 6,3 km/h (2 Bft) 97,87 %
22.09.2015 12:28 13,1 C 12,8 C 11,7 C 97 % 10 lf 1001,3 hPa 0,0 l/m 0 min 2 min 86 W/m 4,2 km/h (1 Bft) 95,65 %
22.09.2015 12:30 13,1 C 12,8 C 11,7 C 97 % 10 lf 1001,3 hPa 0,0 l/m 0 min 2 min 81 W/m 8,4 km/h (2 Bft) 95,74 %
22.09.2015 12:32 13,1 C 12,8 C 11,7 C 97 % 10 lf 1001,2 hPa 0,2 l/m 0 min 2 min 66 W/m 10,5 km/h (2 Bft) 95,74 %
22.09.2015 12:34 13,1 C 12,8 C 11,7 C 97 % 10 lf 1001,2 hPa 0,0 l/m 0 min 2 min 63 W/m 8,4 km/h (2 Bft) 97,87 %
22.09.2015 12:36 13,1 C 12,8 C 11,7 C 97 % 10 lf 1001,2 hPa 0,0 l/m 0 min 0 min 56 W/m 16,7 km/h (3 Bft) 97,87 %
22.09.2015 12:38 13,1 C 12,8 C 11,7 C 97 % 9 lf 1001,3 hPa 0,0 l/m 0 min 0 min 55 W/m 14,6 km/h (3 Bft) 95,74 %
22.09.2015 12:40 13,1 C 12,8 C 11,7 C 97 % 9 lf 1001,2 hPa 0,0 l/m 0 min 0 min 57 W/m 14,6 km/h (3 Bft) 95,65 %
22.09.2015 12:42 13,1 C 12,8 C 11,7 C 97 % 9 lf 1001,2 hPa 0,0 l/m 0 min 2 min 62 W/m 10,5 km/h (2 Bft) 97,87 %
22.09.2015 12:44 13,0 C 12,8 C 11,7 C 97 % 9 lf 1001,2 hPa 0,0 l/m 0 min 2 min 68 W/m 8,4 km/h (2 Bft) 95,74 %
22.09.2015 12:46 13,0 C 12,8 C 11,7 C 97 % 8 lf 1001,2 hPa 0,0 l/m 0 min 0 min 73 W/m 12,6 km/h (3 Bft) 95,74 %
22.09.2015 12:48 13,0 C 12,8 C 11,7 C 97 % 8 lf 1001,1 hPa 0,0 l/m 0 min 0 min 98 W/m 12,6 km/h (3 Bft) 93,62 %
22.09.2015 12:50 13,0 C 12,8 C 11,7 C 97 % 7 lf 1001,0 hPa 0,0 l/m 0 min 0 min 114 W/m 8,4 km/h (2 Bft) 98,28 %
22.09.2015 12:52 13,0 C 12,8 C 11,7 C 97 % 5 lf 1001,0 hPa 0,0 l/m 0 min 0 min 130 W/m 10,5 km/h (2 Bft) 97,14 %
22.09.2015 12:54 13,0 C 13,3 C 12,2 C 97 % 4 lf 1001,0 hPa 0,0 l/m 0 min 0 min 151 W/m 16,7 km/h (3 Bft) 97,87 %
22.09.2015 12:56 13,0 C 13,3 C 12,2 C 97 % 3 lf 1001,0 hPa 0,0 l/m 0 min 0 min 180 W/m 14,6 km/h (3 Bft) 89,36 %
22.09.2015 12:58 13,0 C 13,3 C 12,2 C 97 % 3 lf 1000,9 hPa 0,0 l/m 0 min 2 min 227 W/m 12,6 km/h (3 Bft) 95,74 %
22.09.2015 13:00 13,1 C 13,3 C 12,2 C 97 % 2 lf 1001,0 hPa 0,0 l/m 0 min 2 min 248 W/m 12,6 km/h (3 Bft) 95,74 %
22.09.2015 13:02 13,1 C 13,3 C 12,2 C 97 % 1 lf 1001,0 hPa 0,0 l/m 0 min 0 min 263 W/m 16,7 km/h (3 Bft) 95,65 %
22.09.2015 13:04 13,1 C 14,4 C 12,8 C 97 % 0 lf 1001,0 hPa 0,0 l/m 2 min 0 min 341 W/m 12,6 km/h (3 Bft) 95,74 %
22.09.2015 13:06 13,2 C 14,4 C 12,8 C 97 % 0 lf 1000,9 hPa 0,0 l/m 2 min 0 min 365 W/m 8,4 km/h (2 Bft) 97,87 %
22.09.2015 13:08 13,2 C 14,4 C 12,8 C 97 % 0 lf 1000,9 hPa 0,0 l/m 2 min 0 min 415 W/m 18,8 km/h (3 Bft) 97,87 %
22.09.2015 13:10 13,3 C 15,6 C 12,8 C 97 % 0 lf 1000,9 hPa 0,0 l/m 2 min 0 min 489 W/m 18,8 km/h (3 Bft) 93,62 %
22.09.2015 13:12 13,4 C 16,7 C 13,3 C 97 % 0 lf 1000,9 hPa 0,0 l/m 2 min 0 min 492 W/m 16,7 km/h (3 Bft) 97,87 %
22.09.2015 13:14 13,5 C 15,6 C 12,8 C 98 % 0 lf 1000,8 hPa 0,0 l/m 2 min 0 min 460 W/m 14,6 km/h (3 Bft) 95,74 %
22.09.2015 13:16 13,6 C 15,6 C 12,8 C 97 % 0 lf 1000,8 hPa 0,0 l/m 2 min 0 min 326 W/m 10,5 km/h (2 Bft) 95,65 %
22.09.2015 13:18 13,6 C 16,7 C 13,3 C 97 % 0 lf 1000,8 hPa 0,0 l/m 2 min 0 min 345 W/m 12,6 km/h (3 Bft) 95,74 %
22.09.2015 13:20 13,7 C 16,1 C 13,3 C 98 % 0 lf 1000,8 hPa 0,0 l/m 2 min 0 min 517 W/m 20,9 km/h (4 Bft) 96,61 %
22.09.2015 13:22 13,8 C 16,1 C 13,3 C 98 % 0 lf 1000,7 hPa 0,0 l/m 2 min 0 min 415 W/m 16,7 km/h (3 Bft) 97,14 %
22.09.2015 13:24 13,9 C 17,2 C 13,3 C 98 % 0 lf 1000,7 hPa 0,0 l/m 2 min 0 min 481 W/m 14,6 km/h (3 Bft) 97,87 %
22.09.2015 13:26 13,9 C 17,8 C 13,3 C 98 % 0 lf 1000,6 hPa 0,0 l/m 2 min 0 min 596 W/m 10,5 km/h (2 Bft) 95,65 %
22.09.2015 13:28 14,1 C 18,3 C 13,9 C 98 % 0 lf 1000,6 hPa 0,0 l/m 2 min 0 min 550 W/m 10,5 km/h (2 Bft) 95,74 %
22.09.2015 13:30 14,2 C 18,9 C 13,9 C 98 % 0 lf 1000,6 hPa 0,0 l/m 2 min 0 min 653 W/m 10,5 km/h (2 Bft) 100,00 %
22.09.2015 13:32 14,2 C 20,0 C 14,4 C 98 % 0 lf 1000,6 hPa 0,0 l/m 2 min 0 min 815 W/m 18,8 km/h (3 Bft) 97,87 %
22.09.2015 13:34 14,3 C 21,7 C 13,9 C 98 % 0 lf 1000,4 hPa 0,0 l/m 2 min 0 min 573 W/m 16,7 km/h (3 Bft) 100,00 %
22.09.2015 13:36 14,4 C 21,1 C 14,4 C 98 % 0 lf 1000,5 hPa 0,0 l/m 2 min 0 min 525 W/m 12,6 km/h (3 Bft) 97,87 %
22.09.2015 13:38 14,6 C 20,6 C 14,4 C 98 % 0 lf 1000,4 hPa 0,0 l/m 2 min 0 min 441 W/m 14,6 km/h (3 Bft) 97,83 %
22.09.2015 13:40 14,7 C 20,6 C 13,9 C 98 % 0 lf 1000,4 hPa 0,0 l/m 2 min 0 min 561 W/m 14,6 km/h (3 Bft) 100,00 %
22.09.2015 13:42 14,7 C 20,6 C 13,9 C 98 % 0 lf 1000,3 hPa 0,0 l/m 2 min 0 min 638 W/m 14,6 km/h (3 Bft) 100,00 %
22.09.2015 13:44 14,8 C 21,1 C 14,4 C 98 % 0 lf 1000,3 hPa 0,0 l/m 2 min 0 min 660 W/m 14,6 km/h (3 Bft) 100,00 %
22.09.2015 13:46 14,9 C 20,6 C 15,0 C 98 % 0 lf 1000,3 hPa 0,0 l/m 2 min 0 min 574 W/m 16,7 km/h (3 Bft) 97,87 %
22.09.2015 13:48 15,0 C 20,0 C 14,4 C 98 % 0 lf 1000,3 hPa 0,0 l/m 2 min 0 min 333 W/m 12,6 km/h (3 Bft) 91,49 %
22.09.2015 13:50 15,1 C 20,0 C 14,4 C 98 % 0 lf 1000,2 hPa 0,0 l/m 2 min 0 min 406 W/m 12,6 km/h (3 Bft) 93,10 %
22.09.2015 13:52 15,2 C 21,1 C 14,4 C 98 % 0 lf 1000,2 hPa 0,0 l/m 2 min 0 min 449 W/m 14,6 km/h (3 Bft) 97,14 %
22.09.2015 13:54 15,2 C 23,9 C 14,4 C 98 % 0 lf 1000,3 hPa 0,0 l/m 2 min 0 min 532 W/m 10,5 km/h (2 Bft) 95,74 %
22.09.2015 13:56 15,3 C 21,1 C 14,4 C 97 % 0 lf 1000,2 hPa 0,0 l/m 2 min 0 min 804 W/m 14,6 km/h (3 Bft) 97,87 %
22.09.2015 13:58 15,3 C 18,3 C 13,9 C 97 % 0 lf 1000,2 hPa 0,0 l/m 2 min 0 min 730 W/m 20,9 km/h (4 Bft) 95,74 %
22.09.2015 14:00 15,3 C 17,2 C 13,9 C 97 % 0 lf 1000,2 hPa 0,0 l/m 0 min 0 min 217 W/m 25,1 km/h (4 Bft) 95,74 %
22.09.2015 14:02 15,2 C 16,7 C 13,9 C 96 % 0 lf 1000,1 hPa 0,0 l/m 0 min 0 min 248 W/m 14,6 km/h (3 Bft) 95,65 %
22.09.2015 14:04 15,2 C 17,2 C 13,9 C 96 % 0 lf 1000,0 hPa 0,0 l/m 0 min 0 min 233 W/m 12,6 km/h (3 Bft) 97,87 %
22.09.2015 14:06 15,2 C 17,2 C 13,9 C 95 % 0 lf 1000,1 hPa 0,0 l/m 0 min 0 min 291 W/m 12,6 km/h (3 Bft) 97,87 %
22.09.2015 14:08 15,2 C 17,8 C 13,9 C 95 % 0 lf 1000,0 hPa 0,0 l/m 2 min 0 min 378 W/m 14,6 km/h (3 Bft) 95,74 %
22.09.2015 14:10 15,3 C 18,3 C 14,4 C 94 % 0 lf 1000,0 hPa 0,0 l/m 2 min 0 min 392 W/m 14,6 km/h (3 Bft) 95,74 %
22.09.2015 14:12 15,3 C 17,8 C 14,4 C 94 % 0 lf 1000,0 hPa 0,0 l/m 0 min 0 min 246 W/m 10,5 km/h (2 Bft) 97,87 %
22.09.2015 14:14 15,4 C 17,8 C 14,4 C 94 % 0 lf 1000,0 hPa 0,0 l/m 0 min 0 min 212 W/m 14,6 km/h (3 Bft) 95,65 %
22.09.2015 14:16 15,4 C 16,7 C 13,9 C 93 % 0 lf 999,9 hPa 0,0 l/m 0 min 0 min 188 W/m 16,7 km/h (3 Bft) 97,87 %
22.09.2015 14:18 15,3 C 16,1 C 13,9 C 92 % 0 lf 1000,0 hPa 0,0 l/m 0 min 0 min 161 W/m 14,6 km/h (3 Bft) 97,87 %
22.09.2015 14:20 15,3 C 16,1 C 13,9 C 92 % 0 lf 1000,0 hPa 0,0 l/m 0 min 0 min 144 W/m 12,6 km/h (3 Bft) 98,31 %
22.09.2015 14:22 15,3 C 16,1 C 13,3 C 91 % 0 lf 999,9 hPa 0,0 l/m 0 min 0 min 144 W/m 16,7 km/h (3 Bft) 94,29 %
22.09.2015 14:24 15,3 C 16,1 C 13,3 C 90 % 0 lf 999,8 hPa 0,0 l/m 0 min 0 min 167 W/m 14,6 km/h (3 Bft) 97,83 %
22.09.2015 14:26 15,3 C 17,2 C 13,9 C 90 % 0 lf 999,8 hPa 0,0 l/m 0 min 0 min 272 W/m 10,5 km/h (2 Bft) 97,87 %
22.09.2015 14:28 15,3 C 18,3 C 14,4 C 90 % 0 lf 999,7 hPa 0,0 l/m 2 min 0 min 333 W/m 12,6 km/h (3 Bft) 97,87 %
22.09.2015 14:30 15,4 C 18,9 C 14,4 C 90 % 0 lf 999,8 hPa 0,0 l/m 2 min 0 min 335 W/m 16,7 km/h (3 Bft) 97,87 %
22.09.2015 14:32 15,5 C 18,9 C 14,4 C 90 % 0 lf 999,7 hPa 0,0 l/m 2 min 0 min 313 W/m 14,6 km/h (3 Bft) 93,62 %
22.09.2015 14:34 15,6 C 18,9 C 15,0 C 90 % 0 lf 999,7 hPa 0,0 l/m 2 min 0 min 329 W/m 14,6 km/h (3 Bft) 93,62 %
22.09.2015 14:36 15,6 C 18,9 C 14,4 C 90 % 0 lf 999,7 hPa 0,0 l/m 2 min 0 min 321 W/m 18,8 km/h (3 Bft) 95,65 %
22.09.2015 14:38 15,6 C 18,3 C 14,4 C 89 % 0 lf 999,7 hPa 0,0 l/m 0 min 0 min 291 W/m 20,9 km/h (4 Bft) 97,87 %
22.09.2015 14:40 15,6 C 18,3 C 14,4 C 89 % 0 lf 999,6 hPa 0,0 l/m 2 min 0 min 325 W/m 18,8 km/h (3 Bft) 93,62 %
22.09.2015 14:42 15,7 C 18,9 C 14,4 C 89 % 0 lf 999,6 hPa 0,0 l/m 2 min 0 min 315 W/m 12,6 km/h (3 Bft) 97,87 %
22.09.2015 14:44 15,8 C 18,3 C 14,4 C 89 % 0 lf 999,6 hPa 0,0 l/m 0 min 0 min 292 W/m 14,6 km/h (3 Bft) 97,87 %
22.09.2015 14:46 15,8 C 17,2 C 14,4 C 88 % 0 lf 999,6 hPa 0,0 l/m 0 min 0 min 256 W/m 18,8 km/h (3 Bft) 97,92 %
22.09.2015 14:48 15,8 C 17,2 C 14,4 C 88 % 0 lf 999,6 hPa 0,0 l/m 0 min 0 min 246 W/m 20,9 km/h (4 Bft) 97,87 %
22.09.2015 14:50 15,8 C 16,7 C 14,4 C 88 % 0 lf 999,5 hPa 0,0 l/m 0 min 0 min 285 W/m 23,0 km/h (4 Bft) 97,87 %
22.09.2015 14:52 15,8 C 17,8 C 15,0 C 88 % 0 lf 999,5 hPa 0,0 l/m 2 min 0 min 295 W/m 20,9 km/h (4 Bft) 97,87 %
22.09.2015 14:54 15,8 C 17,2 C 14,4 C 88 % 0 lf 999,5 hPa 0,0 l/m 2 min 0 min 302 W/m 27,2 km/h (4 Bft) 93,48 %
22.09.2015 14:56 15,7 C 17,2 C 14,4 C 87 % 0 lf 999,5 hPa 0,0 l/m 2 min 0 min 292 W/m 18,8 km/h (3 Bft) 95,74 %
22.09.2015 14:58 15,7 C 17,2 C 14,4 C 87 % 0 lf 999,5 hPa 0,0 l/m 2 min 0 min 296 W/m 14,6 km/h (3 Bft) 93,62 %
22.09.2015 15:00 15,7 C 17,2 C 14,4 C 87 % 0 lf 999,5 hPa 0,0 l/m 0 min 0 min 265 W/m 16,7 km/h (3 Bft) 97,87 %
22.09.2015 15:02 15,7 C 17,2 C 14,4 C 87 % 0 lf 999,5 hPa 0,0 l/m 0 min 0 min 245 W/m 18,8 km/h (3 Bft) 97,87 %
22.09.2015 15:04 15,7 C 16,7 C 14,4 C 87 % 0 lf 999,5 hPa 0,0 l/m 0 min 0 min 231 W/m 14,6 km/h (3 Bft) 93,62 %
22.09.2015 15:06 15,7 C 16,7 C 14,4 C 87 % 0 lf 999,5 hPa 0,0 l/m 0 min 0 min 225 W/m 18,8 km/h (3 Bft) 89,13 %
22.09.2015 15:08 15,7 C 16,7 C 14,4 C 87 % 0 lf 999,4 hPa 0,0 l/m 0 min 0 min 221 W/m 20,9 km/h (4 Bft) 93,62 %
22.09.2015 15:10 15,6 C 16,1 C 14,4 C 86 % 0 lf 999,4 hPa 0,0 l/m 0 min 0 min 197 W/m 14,6 km/h (3 Bft) 93,62 %
22.09.2015 15:12 15,6 C 16,1 C 14,4 C 86 % 0 lf 999,3 hPa 0,0 l/m 0 min 0 min 188 W/m 18,8 km/h (3 Bft) 93,62 %
22.09.2015 15:14 15,6 C 16,1 C 14,4 C 86 % 0 lf 999,1 hPa 0,0 l/m 0 min 0 min 188 W/m 20,9 km/h (4 Bft) 91,49 %
22.09.2015 15:16 15,6 C 16,1 C 13,9 C 87 % 0 lf 999,1 hPa 0,0 l/m 0 min 0 min 201 W/m 20,9 km/h (4 Bft) 91,30 %
22.09.2015 15:18 15,5 C 16,1 C 13,9 C 87 % 0 lf 999,1 hPa 0,0 l/m 0 min 0 min 200 W/m 16,7 km/h (3 Bft) 91,49 %
22.09.2015 15:20 15,4 C 16,1 C 13,9 C 87 % 0 lf 999,1 hPa 0,0 l/m 0 min 0 min 196 W/m 14,6 km/h (3 Bft) 93,62 %
22.09.2015 15:22 15,4 C 16,1 C 13,9 C 87 % 0 lf 999,0 hPa 0,0 l/m 0 min 0 min 208 W/m 12,6 km/h (3 Bft) 91,49 %
22.09.2015 15:24 15,4 C 16,1 C 14,4 C 87 % 0 lf 998,9 hPa 0,0 l/m 0 min 0 min 211 W/m 10,5 km/h (2 Bft) 91,49 %
22.09.2015 15:26 15,4 C 16,1 C 13,9 C 87 % 0 lf 998,9 hPa 0,0 l/m 0 min 2 min 187 W/m 18,8 km/h (3 Bft) 93,62 %
22.09.2015 15:28 15,4 C 15,6 C 13,9 C 87 % 0 lf 999,0 hPa 0,0 l/m 0 min 2 min 171 W/m 14,6 km/h (3 Bft) 93,48 %
22.09.2015 15:30 15,4 C 15,0 C 13,3 C 87 % 0 lf 998,9 hPa 0,0 l/m 0 min 2 min 166 W/m 18,8 km/h (3 Bft) 93,62 %
22.09.2015 15:32 15,4 C 15,6 C 13,3 C 87 % 0 lf 998,9 hPa 0,0 l/m 0 min 0 min 176 W/m 14,6 km/h (3 Bft) 93,62 %
22.09.2015 15:34 15,3 C 16,1 C 13,9 C 87 % 0 lf 998,9 hPa 0,0 l/m 0 min 0 min 212 W/m 10,5 km/h (2 Bft) 93,62 %
22.09.2015 15:36 15,3 C 16,1 C 13,9 C 88 % 0 lf 998,9 hPa 0,0 l/m 0 min 0 min 246 W/m 16,7 km/h (3 Bft) 95,74 %
22.09.2015 15:38 15,3 C 16,1 C 14,4 C 88 % 0 lf 998,8 hPa 0,0 l/m 0 min 0 min 247 W/m 16,7 km/h (3 Bft) 91,49 %
22.09.2015 15:40 15,3 C 16,1 C 13,9 C 87 % 0 lf 998,8 hPa 0,0 l/m 0 min 2 min 181 W/m 16,7 km/h (3 Bft) 95,65 %
22.09.2015 15:42 15,3 C 15,6 C 13,9 C 87 % 0 lf 998,8 hPa 0,0 l/m 0 min 2 min 121 W/m 14,6 km/h (3 Bft) 95,74 %
22.09.2015 15:44 15,3 C 15,6 C 13,9 C 87 % 1 lf 998,8 hPa 0,0 l/m 0 min 2 min 84 W/m 16,7 km/h (3 Bft) 95,74 %
22.09.2015 15:46 15,3 C 15,0 C 13,3 C 88 % 0 lf 998,8 hPa 0,0 l/m 0 min 2 min 71 W/m 16,7 km/h (3 Bft) 91,49 %
22.09.2015 15:48 15,3 C 15,0 C 13,3 C 88 % 0 lf 998,9 hPa 0,0 l/m 0 min 0 min 74 W/m 10,5 km/h (2 Bft) 97,87 %
22.09.2015 15:50 15,3 C 15,0 C 13,3 C 88 % 0 lf 998,8 hPa 0,0 l/m 0 min 0 min 92 W/m 8,4 km/h (2 Bft) 93,62 %
22.09.2015 15:52 15,3 C 15,6 C 13,3 C 88 % 0 lf 998,9 hPa 0,0 l/m 0 min 0 min 111 W/m 10,5 km/h (2 Bft) 97,83 %
22.09.2015 15:54 15,2 C 15,6 C 13,3 C 88 % 0 lf 998,8 hPa 0,0 l/m 0 min 0 min 122 W/m 10,5 km/h (2 Bft) 100,00 %
22.09.2015 15:56 15,2 C 15,6 C 13,3 C 88 % 0 lf 998,8 hPa 0,0 l/m 0 min 2 min 127 W/m 8,4 km/h (2 Bft) 97,87 %
22.09.2015 15:58 15,2 C 15,6 C 13,9 C 88 % 1 lf 998,8 hPa 0,0 l/m 0 min 2 min 124 W/m 6,3 km/h (2 Bft) 97,87 %
22.09.2015 16:00 15,2 C 15,6 C 13,9 C 89 % 0 lf 998,8 hPa 0,0 l/m 0 min 2 min 133 W/m 8,4 km/h (2 Bft) 95,74 %
22.09.2015 16:02 15,3 C 15,6 C 13,9 C 89 % 0 lf 998,7 hPa 0,0 l/m 0 min 0 min 146 W/m 6,3 km/h (2 Bft) 97,87 %
22.09.2015 16:04 15,3 C 16,1 C 13,9 C 89 % 0 lf 998,8 hPa 0,0 l/m 0 min 0 min 153 W/m 8,4 km/h (2 Bft) 95,65 %
22.09.2015 16:06 15,3 C 16,1 C 13,9 C 89 % 0 lf 998,7 hPa 0,0 l/m 0 min 0 min 151 W/m 8,4 km/h (2 Bft) 97,87 %
22.09.2015 16:08 15,3 C 16,1 C 13,9 C 89 % 0 lf 998,7 hPa 0,0 l/m 0 min 0 min 151 W/m 8,4 km/h (2 Bft) 97,87 %
22.09.2015 16:10 15,3 C 16,1 C 14,4 C 90 % 0 lf 998,7 hPa 0,0 l/m 0 min 0 min 152 W/m 6,3 km/h (2 Bft) 97,87 %
22.09.2015 16:12 15,3 C 16,1 C 14,4 C 90 % 0 lf 998,7 hPa 0,0 l/m 0 min 0 min 145 W/m 6,3 km/h (2 Bft) 97,87 %
22.09.2015 16:14 15,3 C 16,1 C 14,4 C 90 % 0 lf 998,7 hPa 0,0 l/m 0 min 0 min 127 W/m 6,3 km/h (2 Bft) 100,00 %
22.09.2015 16:16 15,4 C 16,7 C 14,4 C 90 % 0 lf 998,7 hPa 0,0 l/m 0 min 0 min 119 W/m 4,2 km/h (1 Bft) 100,00 %
22.09.2015 16:18 15,4 C 16,7 C 14,4 C 90 % 0 lf 998,6 hPa 0,0 l/m 0 min 0 min 158 W/m 10,5 km/h (2 Bft) 95,74 %
22.09.2015 16:20 15,4 C 17,2 C 15,0 C 90 % 0 lf 998,6 hPa 0,0 l/m 0 min 0 min 202 W/m 8,4 km/h (2 Bft) 100,00 %
22.09.2015 16:22 15,4 C 17,2 C 15,0 C 90 % 0 lf 998,6 hPa 0,0 l/m 0 min 0 min 219 W/m 8,4 km/h (2 Bft) 97,87 %
22.09.2015 16:24 15,4 C 17,8 C 15,0 C 90 % 0 lf 998,6 hPa 0,0 l/m 2 min 0 min 244 W/m 8,4 km/h (2 Bft) 97,87 %
22.09.2015 16:26 15,4 C 18,3 C 15,6 C 90 % 0 lf 998,6 hPa 0,0 l/m 2 min 0 min 264 W/m 12,6 km/h (3 Bft) 100,00 %
22.09.2015 16:28 15,4 C 17,8 C 15,6 C 89 % 0 lf 998,5 hPa 0,0 l/m 2 min 0 min 240 W/m 14,6 km/h (3 Bft) 100,00 %
22.09.2015 16:30 15,4 C 17,8 C 15,6 C 89 % 0 lf 998,5 hPa 0,0 l/m 0 min 0 min 212 W/m 12,6 km/h (3 Bft) 100,00 %
22.09.2015 16:32 15,4 C 17,8 C 15,6 C 88 % 0 lf 998,5 hPa 0,0 l/m 0 min 0 min 209 W/m 10,5 km/h (2 Bft) 100,00 %
22.09.2015 16:34 15,5 C 17,8 C 15,6 C 88 % 0 lf 998,5 hPa 0,0 l/m 0 min 0 min 179 W/m 12,6 km/h (3 Bft) 97,87 %
22.09.2015 16:36 15,6 C 17,2 C 15,6 C 88 % 0 lf 998,5 hPa 0,0 l/m 0 min 0 min 136 W/m 10,5 km/h (2 Bft) 100,00 %
22.09.2015 16:38 15,6 C 16,7 C 15,0 C 87 % 0 lf 998,5 hPa 0,0 l/m 0 min 0 min 114 W/m 8,4 km/h (2 Bft) 95,74 %
22.09.2015 16:40 15,6 C 16,7 C 15,0 C 86 % 0 lf 998,4 hPa 0,0 l/m 0 min 0 min 94 W/m 10,5 km/h (2 Bft) 93,48 %
22.09.2015 16:42 15,6 C 16,7 C 15,0 C 86 % 0 lf 998,4 hPa 0,0 l/m 0 min 0 min 89 W/m 10,5 km/h (2 Bft) 97,87 %
22.09.2015 16:44 15,6 C 16,7 C 15,0 C 85 % 0 lf 998,4 hPa 0,0 l/m 0 min 0 min 94 W/m 14,6 km/h (3 Bft) 97,87 %
22.09.2015 16:46 15,7 C 16,7 C 15,0 C 85 % 0 lf 998,4 hPa 0,0 l/m 0 min 0 min 87 W/m 10,5 km/h (2 Bft) 95,74 %
22.09.2015 16:48 15,7 C 16,7 C 15,0 C 85 % 0 lf 998,3 hPa 0,0 l/m 0 min 0 min 109 W/m 14,6 km/h (3 Bft) 97,87 %
22.09.2015 16:50 15,7 C 16,7 C 15,0 C 84 % 0 lf 998,3 hPa 0,0 l/m 0 min 0 min 139 W/m 14,6 km/h (3 Bft) 97,83 %
22.09.2015 16:52 15,7 C 16,7 C 15,0 C 83 % 0 lf 998,4 hPa 0,0 l/m 0 min 0 min 161 W/m 14,6 km/h (3 Bft) 95,74 %
22.09.2015 16:54 15,7 C 16,7 C 15,0 C 83 % 0 lf 998,3 hPa 0,0 l/m 0 min 0 min 150 W/m 25,1 km/h (4 Bft) 97,87 %
22.09.2015 16:56 15,7 C 16,7 C 15,0 C 82 % 0 lf 998,3 hPa 0,0 l/m 0 min 0 min 141 W/m 29,3 km/h (5 Bft) 95,74 %
22.09.2015 16:58 15,7 C 16,7 C 15,0 C 82 % 0 lf 998,4 hPa 0,0 l/m 0 min 0 min 141 W/m 14,6 km/h (3 Bft) 97,87 %
22.09.2015 17:00 15,7 C 16,7 C 15,0 C 81 % 0 lf 998,5 hPa 0,0 l/m 0 min 0 min 142 W/m 27,2 km/h (4 Bft) 93,62 %
22.09.2015 17:02 15,7 C 16,1 C 14,4 C 81 % 0 lf 998,5 hPa 0,0 l/m 0 min 0 min 139 W/m 31,4 km/h (5 Bft) 95,65 %
22.09.2015 17:04 15,7 C 16,1 C 14,4 C 81 % 0 lf 998,5 hPa 0,0 l/m 0 min 0 min 129 W/m 31,4 km/h (5 Bft) 97,87 %
22.09.2015 17:06 15,7 C 16,1 C 14,4 C 80 % 0 lf 998,5 hPa 0,0 l/m 0 min 0 min 124 W/m 37,7 km/h (5 Bft) 93,62 %
22.09.2015 17:08 15,6 C 16,1 C 14,4 C 80 % 0 lf 998,6 hPa 0,0 l/m 0 min 0 min 120 W/m 35,6 km/h (5 Bft) 87,23 %
22.09.2015 17:10 15,6 C 16,1 C 13,9 C 81 % 0 lf 998,6 hPa 0,0 l/m 0 min 0 min 113 W/m 31,4 km/h (5 Bft) 95,74 %
22.09.2015 17:12 15,6 C 15,6 C 13,9 C 81 % 2 lf 998,6 hPa 0,0 l/m 0 min 2 min 115 W/m 23,0 km/h (4 Bft) 89,36 %
22.09.2015 17:14 15,5 C 15,0 C 13,3 C 81 % 14 lf 998,8 hPa 0,0 l/m 0 min 2 min 110 W/m 33,5 km/h (5 Bft) 95,65 %
22.09.2015 17:16 15,4 C 14,4 C 12,2 C 81 % 12 lf 998,8 hPa 0,0 l/m 0 min 2 min 90 W/m 25,1 km/h (4 Bft) 93,62 %
22.09.2015 17:18 15,3 C 13,9 C 12,2 C 82 % 10 lf 998,8 hPa 0,0 l/m 0 min 0 min 72 W/m 27,2 km/h (4 Bft) 95,74 %
22.09.2015 17:20 15,2 C 13,9 C 12,2 C 82 % 12 lf 998,6 hPa 0,0 l/m 0 min 2 min 67 W/m 25,1 km/h (4 Bft) 95,74 %
22.09.2015 17:22 15,1 C 13,3 C 12,2 C 83 % 14 lf 998,7 hPa 0,0 l/m 0 min 2 min 65 W/m 25,1 km/h (4 Bft) 97,87 %
22.09.2015 17:24 14,9 C 12,8 C 11,7 C 83 % 15 lf 998,7 hPa 0,0 l/m 0 min 2 min 53 W/m 25,1 km/h (4 Bft) 97,87 %
22.09.2015 17:26 14,9 C 12,8 C 11,7 C 84 % 15 lf 998,5 hPa 0,2 l/m 0 min 2 min 46 W/m 12,6 km/h (3 Bft) 97,83 %
22.09.2015 17:28 14,8 C 12,8 C 11,7 C 84 % 15 lf 998,5 hPa 0,0 l/m 0 min 2 min 47 W/m 10,5 km/h (2 Bft) 95,74 %
22.09.2015 17:30 14,8 C 12,8 C 11,7 C 85 % 15 lf 998,5 hPa 0,0 l/m 0 min 2 min 50 W/m 14,6 km/h (3 Bft) 97,87 %
22.09.2015 17:32 14,7 C 12,8 C 11,7 C 85 % 15 lf 998,4 hPa 0,0 l/m 0 min 2 min 50 W/m 6,3 km/h (2 Bft) 100,00 %
22.09.2015 17:34 14,7 C 12,8 C 11,7 C 85 % 15 lf 998,5 hPa 0,0 l/m 0 min 2 min 45 W/m 4,2 km/h (1 Bft) 97,87 %
22.09.2015 17:36 14,7 C 12,8 C 11,7 C 86 % 15 lf 998,4 hPa 0,0 l/m 0 min 2 min 40 W/m 10,5 km/h (2 Bft) 97,87 %
22.09.2015 17:38 14,6 C 12,8 C 11,7 C 86 % 15 lf 998,5 hPa 0,0 l/m 0 min 0 min 34 W/m 6,3 km/h (2 Bft) 95,65 %
22.09.2015 17:40 14,6 C 12,8 C 11,7 C 86 % 15 lf 998,5 hPa 0,0 l/m 0 min 0 min 26 W/m 2,1 km/h (1 Bft) 97,87 %
22.09.2015 17:42 14,6 C 12,8 C 11,7 C 87 % 15 lf 998,5 hPa 0,0 l/m 0 min 2 min 28 W/m 14,6 km/h (3 Bft) 100,00 %
22.09.2015 17:44 14,5 C 12,8 C 11,7 C 86 % 15 lf 998,5 hPa 0,0 l/m 0 min 2 min 44 W/m 10,5 km/h (2 Bft) 97,87 %
22.09.2015 17:46 14,4 C 12,8 C 11,7 C 87 % 15 lf 998,6 hPa 0,0 l/m 0 min 2 min 46 W/m 6,3 km/h (2 Bft) 100,00 %
22.09.2015 17:48 14,4 C 12,8 C 11,7 C 87 % 15 lf 998,5 hPa 0,2 l/m 0 min 2 min 40 W/m 6,3 km/h (2 Bft) 100,00 %
22.09.2015 17:50 14,3 C 12,8 C 11,7 C 87 % 15 lf 998,5 hPa 0,0 l/m 0 min 2 min 39 W/m 4,2 km/h (1 Bft) 97,87 %
22.09.2015 17:52 14,3 C 12,8 C 11,7 C 88 % 15 lf 998,4 hPa 0,0 l/m 0 min 2 min 46 W/m 6,3 km/h (2 Bft) 97,87 %
22.09.2015 17:54 14,2 C 12,8 C 11,7 C 88 % 15 lf 998,4 hPa 0,0 l/m 0 min 2 min 48 W/m 4,2 km/h (1 Bft) 100,00 %
22.09.2015 17:56 14,2 C 12,8 C 11,7 C 88 % 15 lf 998,4 hPa 0,0 l/m 0 min 2 min 43 W/m 8,4 km/h (2 Bft) 100,00 %
22.09.2015 17:58 14,2 C 12,8 C 11,7 C 88 % 15 lf 998,5 hPa 0,0 l/m 0 min 2 min 35 W/m 8,4 km/h (2 Bft) 100,00 %
22.09.2015 18:00 14,2 C 12,8 C 11,7 C 88 % 15 lf 998,4 hPa 0,0 l/m 0 min 2 min 30 W/m 10,5 km/h (2 Bft) 95,65 %
22.09.2015 18:02 14,2 C 12,8 C 11,7 C 89 % 15 lf 998,5 hPa 0,0 l/m 0 min 2 min 26 W/m 4,2 km/h (1 Bft) 95,74 %
22.09.2015 18:06 14,2 C 12,8 C 11,7 C 89 % 15 lf 998,4 hPa 0,2 l/m 0 min 2 min 24 W/m 4,2 km/h (1 Bft) 93,62 %
22.09.2015 18:08 14,2 C 12,8 C 11,7 C 89 % 15 lf 998,4 hPa 0,0 l/m 0 min 2 min 29 W/m 4,2 km/h (1 Bft) 97,87 %
22.09.2015 18:10 14,1 C 12,8 C 11,7 C 89 % 15 lf 998,3 hPa 0,2 l/m 0 min 2 min 40 W/m 8,4 km/h (2 Bft) 97,87 %
22.09.2015 18:12 14,1 C 12,8 C 11,7 C 89 % 15 lf 998,3 hPa 0,0 l/m 0 min 2 min 55 W/m 10,5 km/h (2 Bft) 95,65 %
22.09.2015 18:14 14,1 C 12,8 C 11,7 C 89 % 15 lf 998,2 hPa 0,0 l/m 0 min 2 min 74 W/m 6,3 km/h (2 Bft) 93,62 %
22.09.2015 18:16 14,0 C 12,8 C 11,7 C 90 % 15 lf 998,3 hPa 0,2 l/m 0 min 2 min 69 W/m 12,6 km/h (3 Bft) 95,74 %
22.09.2015 18:18 14,0 C 12,8 C 11,7 C 90 % 15 lf 998,3 hPa 0,0 l/m 0 min 2 min 55 W/m 14,6 km/h (3 Bft) 91,49 %
22.09.2015 18:20 13,9 C 12,8 C 11,7 C 90 % 15 lf 998,3 hPa 0,0 l/m 0 min 2 min 44 W/m 10,5 km/h (2 Bft) 95,74 %
22.09.2015 18:22 13,9 C 12,8 C 11,7 C 90 % 15 lf 998,3 hPa 0,0 l/m 0 min 0 min 35 W/m 16,7 km/h (3 Bft) 95,74 %
22.09.2015 18:24 13,9 C 12,8 C 11,7 C 91 % 15 lf 998,4 hPa 0,0 l/m 0 min 0 min 33 W/m 20,9 km/h (4 Bft) 95,65 %
22.09.2015 18:26 13,8 C 12,8 C 11,7 C 90 % 15 lf 998,5 hPa 0,0 l/m 0 min 0 min 37 W/m 18,8 km/h (3 Bft) 93,62 %
22.09.2015 18:28 13,8 C 12,8 C 11,7 C 91 % 15 lf 998,5 hPa 0,0 l/m 0 min 0 min 41 W/m 10,5 km/h (2 Bft) 95,74 %
22.09.2015 18:30 13,7 C 12,8 C 11,7 C 91 % 15 lf 998,5 hPa 0,0 l/m 0 min 0 min 41 W/m 16,7 km/h (3 Bft) 93,62 %
22.09.2015 18:32 13,7 C 12,8 C 11,7 C 91 % 15 lf 998,5 hPa 0,0 l/m 0 min 0 min 39 W/m 18,8 km/h (3 Bft) 95,74 %
22.09.2015 18:34 13,6 C 12,2 C 11,1 C 91 % 15 lf 998,5 hPa 0,0 l/m 0 min 0 min 39 W/m 23,0 km/h (4 Bft) 93,62 %
22.09.2015 18:36 13,5 C 12,2 C 11,1 C 91 % 15 lf 998,7 hPa 0,0 l/m 0 min 0 min 39 W/m 14,6 km/h (3 Bft) 95,65 %
22.09.2015 18:38 13,4 C 12,2 C 11,1 C 91 % 15 lf 998,7 hPa 0,0 l/m 0 min 2 min 39 W/m 16,7 km/h (3 Bft) 95,74 %
22.09.2015 18:40 13,3 C 12,2 C 11,1 C 91 % 15 lf 998,8 hPa 0,0 l/m 0 min 2 min 36 W/m 18,8 km/h (3 Bft) 95,74 %
22.09.2015 18:42 13,3 C 12,2 C 11,1 C 91 % 15 lf 998,8 hPa 0,0 l/m 0 min 2 min 32 W/m 16,7 km/h (3 Bft) 95,74 %
22.09.2015 18:44 13,2 C 11,7 C 11,1 C 91 % 15 lf 998,8 hPa 0,0 l/m 0 min 2 min 27 W/m 16,7 km/h (3 Bft) 93,62 %
22.09.2015 18:46 13,1 C 11,7 C 11,1 C 91 % 15 lf 998,8 hPa 0,0 l/m 0 min 0 min 21 W/m 16,7 km/h (3 Bft) 91,49 %
22.09.2015 18:48 13,0 C 11,7 C 10,6 C 91 % 15 lf 998,8 hPa 0,0 l/m 0 min 0 min 18 W/m 20,9 km/h (4 Bft) 93,48 %
22.09.2015 18:50 12,9 C 11,7 C 10,6 C 91 % 14 lf 998,8 hPa 0,0 l/m 0 min 0 min 16 W/m 14,6 km/h (3 Bft) 95,74 %
22.09.2015 18:52 12,8 C 11,7 C 10,6 C 91 % 15 lf 998,7 hPa 0,0 l/m 0 min 0 min 15 W/m 14,6 km/h (3 Bft) 95,74 %
22.09.2015 18:54 12,8 C 11,7 C 10,6 C 91 % 14 lf 998,8 hPa 0,0 l/m 0 min 0 min 14 W/m 16,7 km/h (3 Bft) 93,62 %
22.09.2015 18:56 12,7 C 11,7 C 10,6 C 91 % 14 lf 998,8 hPa 0,0 l/m 0 min 0 min 14 W/m 10,5 km/h (2 Bft) 97,87 %
22.09.2015 18:58 12,7 C 11,7 C 10,6 C 91 % 14 lf 998,8 hPa 0,0 l/m 0 min 0 min 14 W/m 10,5 km/h (2 Bft) 93,62 %
22.09.2015 19:00 12,6 C 11,7 C 10,6 C 90 % 14 lf 998,8 hPa 0,0 l/m 0 min 0 min 13 W/m 10,5 km/h (2 Bft) 93,48 %
22.09.2015 19:02 12,6 C 11,7 C 10,6 C 90 % 14 lf 998,8 hPa 0,0 l/m 0 min 0 min 12 W/m 8,4 km/h (2 Bft) 95,74 %
22.09.2015 19:04 12,6 C 11,1 C 10,6 C 90 % 14 lf 998,8 hPa 0,0 l/m 0 min 0 min 12 W/m 8,4 km/h (2 Bft) 95,74 %
22.09.2015 19:06 12,6 C 11,1 C 10,6 C 91 % 14 lf 998,8 hPa 0,0 l/m 0 min 0 min 12 W/m 10,5 km/h (2 Bft) 95,74 %
22.09.2015 19:08 12,5 C 11,1 C 10,6 C 91 % 14 lf 998,7 hPa 0,0 l/m 0 min 0 min 12 W/m 12,6 km/h (3 Bft) 95,74 %
22.09.2015 19:10 12,4 C 11,1 C 10,6 C 91 % 14 lf 998,8 hPa 0,0 l/m 0 min 0 min 12 W/m 10,5 km/h (2 Bft) 91,30 %
22.09.2015 19:12 12,4 C 11,1 C 10,0 C 91 % 14 lf 998,8 hPa 0,0 l/m 0 min 0 min 12 W/m 8,4 km/h (2 Bft) 91,49 %
22.09.2015 19:14 12,4 C 11,1 C 10,0 C 91 % 14 lf 998,8 hPa 0,0 l/m 0 min 0 min 11 W/m 12,6 km/h (3 Bft) 93,62 %
22.09.2015 19:16 12,3 C 11,1 C 10,0 C 91 % 14 lf 998,8 hPa 0,0 l/m 0 min 0 min 10 W/m 10,5 km/h (2 Bft) 93,62 %
22.09.2015 19:18 12,3 C 11,1 C 10,0 C 91 % 14 lf 998,8 hPa 0,0 l/m 0 min 0 min 9 W/m 8,4 km/h (2 Bft) 91,49 %
22.09.2015 19:20 12,3 C 11,1 C 10,0 C 91 % 14 lf 998,8 hPa 0,0 l/m 0 min 0 min 8 W/m 6,3 km/h (2 Bft) 93,62 %
22.09.2015 19:22 12,2 C 11,1 C 10,0 C 91 % 14 lf 998,8 hPa 0,0 l/m 0 min 0 min 7 W/m 6,3 km/h (2 Bft) 95,65 %
22.09.2015 19:24 12,2 C 11,1 C 10,0 C 91 % 14 lf 998,9 hPa 0,0 l/m 0 min 0 min 7 W/m 2,1 km/h (1 Bft) 95,74 %
22.09.2015 19:26 12,2 C 11,1 C 10,0 C 91 % 14 lf 998,9 hPa 0,0 l/m 0 min 0 min 6 W/m 6,3 km/h (2 Bft) 93,62 %
22.09.2015 19:28 12,2 C 11,1 C 10,0 C 91 % 14 lf 999,0 hPa 0,0 l/m 0 min 0 min 5 W/m 6,3 km/h (2 Bft) 95,74 %
22.09.2015 19:30 12,1 C 11,1 C 10,0 C 91 % 14 lf 999,0 hPa 0,0 l/m 0 min 0 min 5 W/m 6,3 km/h (2 Bft) 95,74 %
22.09.2015 19:32 12,1 C 11,1 C 10,0 C 91 % 14 lf 999,2 hPa 0,0 l/m 0 min 0 min 5 W/m 10,5 km/h (2 Bft) 93,62 %
22.09.2015 19:34 12,1 C 11,1 C 10,0 C 91 % 14 lf 999,2 hPa 0,0 l/m 0 min 0 min 1 W/m 6,3 km/h (2 Bft) 97,83 %
22.09.2015 19:36 12,0 C 11,1 C 10,0 C 91 % 14 lf 999,3 hPa 0,0 l/m 0 min 0 min 0 W/m 8,4 km/h (2 Bft) 97,87 %
22.09.2015 19:38 12,0 C 11,1 C 10,0 C 91 % 14 lf 999,3 hPa 0,0 l/m 0 min 0 min 0 W/m 10,5 km/h (2 Bft) 100,00 %
22.09.2015 19:40 12,0 C 11,1 C 10,0 C 91 % 14 lf 999,4 hPa 0,0 l/m 0 min 0 min 0 W/m 6,3 km/h (2 Bft) 89,36 %
22.09.2015 19:42 11,9 C 11,1 C 10,0 C 91 % 14 lf 999,4 hPa 0,0 l/m 0 min 0 min 0 W/m 6,3 km/h (2 Bft) 97,87 %
22.09.2015 19:44 11,9 C 11,1 C 10,0 C 91 % 14 lf 999,4 hPa 0,0 l/m 0 min 0 min 0 W/m 8,4 km/h (2 Bft) 95,74 %
22.09.2015 19:46 11,9 C 11,1 C 10,6 C 91 % 14 lf 999,4 hPa 0,0 l/m 0 min 0 min 0 W/m 10,5 km/h (2 Bft) 97,83 %
22.09.2015 19:48 11,9 C 11,1 C 10,6 C 92 % 14 lf 999,4 hPa 0,0 l/m 0 min 0 min 0 W/m 8,4 km/h (2 Bft) 95,74 %
22.09.2015 19:50 11,9 C 11,1 C 10,6 C 92 % 14 lf 999,4 hPa 0,0 l/m 0 min 0 min 0 W/m 8,4 km/h (2 Bft) 95,74 %
22.09.2015 19:52 11,9 C 11,1 C 10,6 C 92 % 13 lf 999,4 hPa 0,0 l/m 0 min 0 min 0 W/m 8,4 km/h (2 Bft) 97,87 %
22.09.2015 19:54 11,9 C 11,1 C 10,6 C 92 % 14 lf 999,4 hPa 0,0 l/m 0 min 0 min 0 W/m 12,6 km/h (3 Bft) 97,87 %
22.09.2015 19:56 11,9 C 11,1 C 10,6 C 92 % 13 lf 999,5 hPa 0,0 l/m 0 min 0 min 0 W/m 10,5 km/h (2 Bft) 97,87 %
22.09.2015 19:58 11,8 C 11,1 C 10,6 C 92 % 14 lf 999,4 hPa 0,0 l/m 0 min 0 min 0 W/m 8,4 km/h (2 Bft) 97,83 %
22.09.2015 20:00 11,8 C 11,1 C 10,6 C 92 % 13 lf 999,4 hPa 0,0 l/m 0 min 0 min 0 W/m 8,4 km/h (2 Bft) 97,87 %
22.09.2015 20:02 11,8 C 11,1 C 10,6 C 93 % 13 lf 999,5 hPa 0,0 l/m 0 min 0 min 0 W/m 6,3 km/h (2 Bft) 93,62 %
22.09.2015 20:04 11,8 C 11,1 C 10,6 C 92 % 13 lf 999,5 hPa 0,0 l/m 0 min 0 min 0 W/m 8,4 km/h (2 Bft) 100,00 %
22.09.2015 20:06 11,8 C 11,1 C 10,6 C 93 % 13 lf 999,6 hPa 0,0 l/m 0 min 0 min 0 W/m 10,5 km/h (2 Bft) 100,00 %
22.09.2015 20:08 11,8 C 11,7 C 10,6 C 93 % 13 lf 999,6 hPa 0,0 l/m 0 min 0 min 0 W/m 10,5 km/h (2 Bft) 97,87 %
22.09.2015 20:10 11,8 C 11,1 C 10,6 C 93 % 13 lf 999,6 hPa 0,0 l/m 0 min 0 min 0 W/m 12,6 km/h (3 Bft) 100,00 %
22.09.2015 20:12 11,8 C 11,7 C 10,6 C 93 % 13 lf 999,6 hPa 0,0 l/m 0 min 0 min 0 W/m 10,5 km/h (2 Bft) 100,00 %
22.09.2015 20:14 11,8 C 11,7 C 10,6 C 93 % 13 lf 999,6 hPa 0,0 l/m 0 min 0 min 0 W/m 14,6 km/h (3 Bft) 97,87 %
22.09.2015 20:16 11,8 C 11,7 C 10,6 C 93 % 12 lf 999,6 hPa 0,0 l/m 0 min 0 min 0 W/m 12,6 km/h (3 Bft) 100,00 %
22.09.2015 20:18 11,8 C 11,7 C 10,6 C 93 % 12 lf 999,6 hPa 0,0 l/m 0 min 0 min 0 W/m 8,4 km/h (2 Bft) 100,00 %
22.09.2015 20:20 11,8 C 11,7 C 10,6 C 93 % 12 lf 999,6 hPa 0,0 l/m 0 min 0 min 0 W/m 6,3 km/h (2 Bft) 93,48 %
22.09.2015 20:22 11,8 C 11,7 C 10,6 C 93 % 12 lf 999,6 hPa 0,0 l/m 0 min 0 min 0 W/m 6,3 km/h (2 Bft) 100,00 %
22.09.2015 20:24 11,8 C 11,7 C 10,6 C 93 % 12 lf 999,6 hPa 0,0 l/m 0 min 0 min 0 W/m 4,2 km/h (1 Bft) 100,00 %
22.09.2015 20:26 11,8 C 11,7 C 10,6 C 93 % 12 lf 999,6 hPa 0,0 l/m 0 min 0 min 0 W/m 12,6 km/h (3 Bft) 97,87 %
22.09.2015 20:28 11,8 C 11,7 C 10,6 C 94 % 12 lf 999,6 hPa 0,0 l/m 0 min 0 min 0 W/m 8,4 km/h (2 Bft) 100,00 %
22.09.2015 20:30 11,8 C 11,7 C 10,6 C 94 % 12 lf 999,6 hPa 0,0 l/m 0 min 0 min 0 W/m 8,4 km/h (2 Bft) 100,00 %
22.09.2015 20:32 11,8 C 11,7 C 10,6 C 94 % 11 lf 999,6 hPa 0,0 l/m 0 min 0 min 0 W/m 8,4 km/h (2 Bft) 100,00 %
22.09.2015 20:34 11,8 C 11,7 C 10,6 C 94 % 11 lf 999,6 hPa 0,0 l/m 0 min 0 min 0 W/m 12,6 km/h (3 Bft) 100,00 %
22.09.2015 20:36 11,8 C 11,7 C 10,6 C 94 % 10 lf 999,6 hPa 0,0 l/m 0 min 0 min 0 W/m 6,3 km/h (2 Bft) 97,87 %
22.09.2015 20:38 11,9 C 11,7 C 10,6 C 94 % 10 lf 999,7 hPa 0,0 l/m 0 min 0 min 0 W/m 8,4 km/h (2 Bft) 97,87 %
22.09.2015 20:40 11,9 C 11,7 C 10,6 C 94 % 10 lf 999,7 hPa 0,0 l/m 0 min 0 min 0 W/m 27,2 km/h (4 Bft) 97,87 %
22.09.2015 20:42 11,9 C 11,7 C 10,6 C 94 % 10 lf 999,7 hPa 0,0 l/m 0 min 0 min 0 W/m 12,6 km/h (3 Bft) 100,00 %
22.09.2015 20:44 11,9 C 11,7 C 10,6 C 94 % 10 lf 999,7 hPa 0,0 l/m 0 min 2 min 0 W/m 12,6 km/h (3 Bft) 95,65 %
22.09.2015 20:46 11,9 C 11,7 C 10,6 C 94 % 10 lf 999,8 hPa 0,0 l/m 0 min 2 min 0 W/m 8,4 km/h (2 Bft) 97,87 %
22.09.2015 20:48 11,9 C 11,7 C 10,6 C 94 % 11 lf 999,8 hPa 0,0 l/m 0 min 2 min 0 W/m 10,5 km/h (2 Bft) 95,74 %
22.09.2015 20:50 11,9 C 11,7 C 10,6 C 94 % 11 lf 999,7 hPa 0,0 l/m 0 min 2 min 0 W/m 16,7 km/h (3 Bft) 97,87 %
22.09.2015 20:52 11,9 C 11,7 C 10,6 C 94 % 10 lf 999,8 hPa 0,0 l/m 0 min 2 min 0 W/m 14,6 km/h (3 Bft) 97,87 %
22.09.2015 20:54 11,9 C 11,7 C 10,6 C 94 % 10 lf 999,8 hPa 0,0 l/m 0 min 0 min 0 W/m 10,5 km/h (2 Bft) 97,87 %
22.09.2015 20:56 11,9 C 11,7 C 10,6 C 94 % 10 lf 999,8 hPa 0,0 l/m 0 min 0 min 0 W/m 14,6 km/h (3 Bft) 97,83 %
22.09.2015 20:58 11,9 C 11,7 C 10,6 C 95 % 9 lf 999,8 hPa 0,0 l/m 0 min 0 min 0 W/m 18,8 km/h (3 Bft) 93,62 %
22.09.2015 21:00 12,0 C 11,7 C 10,6 C 95 % 9 lf 999,8 hPa 0,0 l/m 0 min 0 min 0 W/m 18,8 km/h (3 Bft) 95,74 %
22.09.2015 21:02 12,0 C 11,7 C 10,6 C 95 % 8 lf 999,8 hPa 0,0 l/m 0 min 0 min 0 W/m 14,6 km/h (3 Bft) 95,74 %
22.09.2015 21:04 12,0 C 11,7 C 10,6 C 95 % 8 lf 999,8 hPa 0,0 l/m 0 min 0 min 0 W/m 14,6 km/h (3 Bft) 93,62 %
22.09.2015 21:06 12,0 C 11,7 C 10,6 C 95 % 7 lf 999,9 hPa 0,0 l/m 0 min 0 min 0 W/m 14,6 km/h (3 Bft) 93,62 %
22.09.2015 21:08 12,0 C 11,7 C 10,6 C 95 % 6 lf 999,8 hPa 0,0 l/m 0 min 0 min 0 W/m 14,6 km/h (3 Bft) 93,48 %
22.09.2015 21:10 12,0 C 11,7 C 10,6 C 95 % 6 lf 999,8 hPa 0,0 l/m 0 min 0 min 0 W/m 20,9 km/h (4 Bft) 95,74 %
22.09.2015 21:12 12,0 C 11,7 C 10,6 C 95 % 5 lf 999,9 hPa 0,0 l/m 0 min 0 min 0 W/m 18,8 km/h (3 Bft) 91,49 %
22.09.2015 21:14 11,9 C 11,7 C 10,6 C 95 % 4 lf 999,9 hPa 0,0 l/m 0 min 0 min 0 W/m 16,7 km/h (3 Bft) 93,62 %
22.09.2015 21:16 11,9 C 11,7 C 10,6 C 95 % 4 lf 999,9 hPa 0,0 l/m 0 min 0 min 0 W/m 18,8 km/h (3 Bft) 95,74 %
22.09.2015 21:18 11,9 C 11,7 C 10,6 C 95 % 4 lf 1000,0 hPa 0,0 l/m 0 min 0 min 0 W/m 20,9 km/h (4 Bft) 95,74 %
22.09.2015 21:20 11,9 C 11,7 C 10,6 C 95 % 4 lf 1000,0 hPa 0,0 l/m 0 min 0 min 0 W/m 16,7 km/h (3 Bft) 95,65 %
22.09.2015 21:22 11,9 C 11,7 C 10,0 C 95 % 4 lf 1000,0 hPa 0,0 l/m 0 min 0 min 0 W/m 14,6 km/h (3 Bft) 95,74 %
22.09.2015 21:24 11,9 C 11,1 C 10,0 C 95 % 3 lf 1000,0 hPa 0,0 l/m 0 min 0 min 0 W/m 16,7 km/h (3 Bft) 95,74 %
22.09.2015 21:26 11,8 C 11,1 C 10,0 C 95 % 3 lf 1000,1 hPa 0,0 l/m 0 min 0 min 0 W/m 20,9 km/h (4 Bft) 93,62 %
22.09.2015 21:28 11,8 C 11,1 C 10,0 C 95 % 3 lf 1000,0 hPa 0,0 l/m 0 min 0 min 0 W/m 23,0 km/h (4 Bft) 91,49 %
22.09.2015 21:30 11,7 C 11,1 C 10,0 C 95 % 3 lf 1000,1 hPa 0,0 l/m 0 min 0 min 0 W/m 25,1 km/h (4 Bft) 95,65 %
22.09.2015 21:32 11,7 C 11,1 C 10,0 C 94 % 3 lf 1000,1 hPa 0,0 l/m 0 min 0 min 0 W/m 20,9 km/h (4 Bft) 97,87 %
22.09.2015 21:34 11,7 C 11,1 C 10,0 C 94 % 2 lf 1000,1 hPa 0,0 l/m 0 min 0 min 0 W/m 18,8 km/h (3 Bft) 97,87 %
22.09.2015 21:36 11,7 C 11,1 C 10,0 C 94 % 2 lf 1000,1 hPa 0,0 l/m 0 min 0 min 0 W/m 23,0 km/h (4 Bft) 95,74 %
22.09.2015 21:38 11,6 C 11,1 C 10,0 C 94 % 2 lf 1000,1 hPa 0,0 l/m 0 min 0 min 0 W/m 18,8 km/h (3 Bft) 100,00 %
22.09.2015 21:40 11,6 C 11,1 C 9,4 C 94 % 1 lf 1000,2 hPa 0,0 l/m 0 min 0 min 0 W/m 18,8 km/h (3 Bft) 95,74 %
22.09.2015 21:42 11,5 C 10,6 C 9,4 C 94 % 1 lf 1000,2 hPa 0,0 l/m 0 min 0 min 0 W/m 16,7 km/h (3 Bft) 97,83 %
22.09.2015 21:44 11,5 C 10,6 C 9,4 C 94 % 1 lf 1000,3 hPa 0,0 l/m 0 min 0 min 0 W/m 16,7 km/h (3 Bft) 95,74 %
22.09.2015 21:46 11,4 C 10,6 C 9,4 C 94 % 1 lf 1000,3 hPa 0,0 l/m 0 min 0 min 0 W/m 14,6 km/h (3 Bft) 95,74 %
22.09.2015 21:48 11,4 C 10,6 C 9,4 C 94 % 1 lf 1000,3 hPa 0,0 l/m 0 min 0 min 0 W/m 20,9 km/h (4 Bft) 95,74 %
22.09.2015 21:50 11,4 C 10,6 C 9,4 C 94 % 1 lf 1000,3 hPa 0,0 l/m 0 min 0 min 0 W/m 16,7 km/h (3 Bft) 97,87 %
22.09.2015 21:52 11,3 C 10,6 C 9,4 C 94 % 1 lf 1000,2 hPa 0,0 l/m 0 min 0 min 0 W/m 14,6 km/h (3 Bft) 97,87 %
22.09.2015 21:54 11,3 C 10,6 C 9,4 C 94 % 1 lf 1000,3 hPa 0,0 l/m 0 min 0 min 0 W/m 23,0 km/h (4 Bft) 100,00 %
22.09.2015 21:56 11,2 C 10,6 C 9,4 C 94 % 1 lf 1000,3 hPa 0,0 l/m 0 min 0 min 0 W/m 14,6 km/h (3 Bft) 100,00 %
22.09.2015 21:58 11,2 C 10,6 C 9,4 C 94 % 1 lf 1000,4 hPa 0,0 l/m 0 min 0 min 0 W/m 18,8 km/h (3 Bft) 100,00 %
22.09.2015 22:00 11,2 C 10,6 C 9,4 C 94 % 1 lf 1000,4 hPa 0,0 l/m 0 min 0 min 0 W/m 12,6 km/h (3 Bft) 93,62 %
22.09.2015 22:02 11,2 C 10,6 C 9,4 C 94 % 1 lf 1000,3 hPa 0,0 l/m 0 min 0 min 0 W/m 16,7 km/h (3 Bft) 97,87 %
22.09.2015 22:04 11,1 C 10,6 C 9,4 C 94 % 1 lf 1000,4 hPa 0,0 l/m 0 min 0 min 0 W/m 10,5 km/h (2 Bft) 95,74 %
22.09.2015 22:06 11,1 C 10,6 C 9,4 C 94 % 1 lf 1000,4 hPa 0,0 l/m 0 min 0 min 0 W/m 14,6 km/h (3 Bft) 97,83 %
22.09.2015 22:08 11,1 C 10,6 C 9,4 C 94 % 1 lf 1000,4 hPa 0,0 l/m 0 min 0 min 0 W/m 16,7 km/h (3 Bft) 95,74 %
22.09.2015 22:10 11,0 C 10,6 C 9,4 C 94 % 1 lf 1000,4 hPa 0,0 l/m 0 min 0 min 0 W/m 14,6 km/h (3 Bft) 93,62 %
22.09.2015 22:12 11,0 C 10,6 C 9,4 C 94 % 1 lf 1000,5 hPa 0,0 l/m 0 min 0 min 0 W/m 14,6 km/h (3 Bft) 97,87 %
22.09.2015 22:14 11,0 C 10,6 C 9,4 C 94 % 1 lf 1000,5 hPa 0,0 l/m 0 min 0 min 0 W/m 10,5 km/h (2 Bft) 97,87 %
22.09.2015 22:16 10,9 C 10,6 C 9,4 C 94 % 1 lf 1000,5 hPa 0,0 l/m 0 min 0 min 0 W/m 14,6 km/h (3 Bft) 97,87 %
22.09.2015 22:18 10,9 C 10,6 C 9,4 C 94 % 1 lf 1000,5 hPa 0,0 l/m 0 min 0 min 0 W/m 10,5 km/h (2 Bft) 93,48 %
22.09.2015 22:20 10,9 C 10,6 C 9,4 C 94 % 1 lf 1000,5 hPa 0,0 l/m 0 min 0 min 0 W/m 16,7 km/h (3 Bft) 95,74 %
22.09.2015 22:22 10,9 C 10,6 C 9,4 C 94 % 1 lf 1000,5 hPa 0,0 l/m 0 min 0 min 0 W/m 10,5 km/h (2 Bft) 95,74 %
22.09.2015 22:24 10,9 C 10,6 C 9,4 C 94 % 1 lf 1000,5 hPa 0,0 l/m 0 min 0 min 0 W/m 10,5 km/h (2 Bft) 95,74 %
22.09.2015 22:26 10,8 C 10,6 C 9,4 C 94 % 1 lf 1000,6 hPa 0,0 l/m 0 min 0 min 0 W/m 10,5 km/h (2 Bft) 93,62 %
22.09.2015 22:28 10,8 C 10,6 C 9,4 C 94 % 1 lf 1000,6 hPa 0,0 l/m 0 min 0 min 0 W/m 10,5 km/h (2 Bft) 95,74 %
22.09.2015 22:30 10,8 C 10,6 C 9,4 C 94 % 1 lf 1000,6 hPa 0,0 l/m 0 min 0 min 0 W/m 10,5 km/h (2 Bft) 93,48 %
22.09.2015 22:32 10,8 C 10,6 C 9,4 C 94 % 1 lf 1000,6 hPa 0,0 l/m 0 min 0 min 0 W/m 8,4 km/h (2 Bft) 91,49 %
22.09.2015 22:34 10,8 C 10,6 C 9,4 C 94 % 1 lf 1000,6 hPa 0,0 l/m 0 min 0 min 0 W/m 12,6 km/h (3 Bft) 95,74 %
22.09.2015 22:36 10,8 C 10,6 C 9,4 C 94 % 1 lf 1000,6 hPa 0,0 l/m 0 min 0 min 0 W/m 10,5 km/h (2 Bft) 91,49 %
22.09.2015 22:38 10,8 C 10,6 C 9,4 C 94 % 1 lf 1000,6 hPa 0,0 l/m 0 min 0 min 0 W/m 8,4 km/h (2 Bft) 93,62 %
22.09.2015 22:40 10,8 C 10,6 C 9,4 C 94 % 1 lf 1000,6 hPa 0,0 l/m 0 min 0 min 0 W/m 12,6 km/h (3 Bft) 93,62 %
22.09.2015 22:42 10,8 C 10,6 C 9,4 C 94 % 1 lf 1000,6 hPa 0,0 l/m 0 min 0 min 0 W/m 8,4 km/h (2 Bft) 93,48 %
22.09.2015 22:44 10,7 C 10,6 C 9,4 C 94 % 1 lf 1000,6 hPa 0,0 l/m 0 min 0 min 0 W/m 10,5 km/h (2 Bft) 89,36 %
22.09.2015 22:46 10,7 C 10,6 C 9,4 C 94 % 1 lf 1000,6 hPa 0,0 l/m 0 min 0 min 0 W/m 14,6 km/h (3 Bft) 95,74 %
22.09.2015 22:48 10,7 C 10,6 C 9,4 C 94 % 1 lf 1000,6 hPa 0,0 l/m 0 min 0 min 0 W/m 16,7 km/h (3 Bft) 95,74 %
22.09.2015 22:50 10,7 C 10,6 C 9,4 C 94 % 1 lf 1000,6 hPa 0,0 l/m 0 min 0 min 0 W/m 10,5 km/h (2 Bft) 93,62 %
22.09.2015 22:52 10,7 C 10,6 C 8,9 C 94 % 1 lf 1000,7 hPa 0,0 l/m 0 min 0 min 0 W/m 12,6 km/h (3 Bft) 89,13 %
22.09.2015 22:54 10,7 C 10,6 C 8,9 C 94 % 1 lf 1000,7 hPa 0,0 l/m 0 min 0 min 0 W/m 14,6 km/h (3 Bft) 93,62 %
22.09.2015 22:56 10,7 C 10,6 C 8,9 C 94 % 1 lf 1000,7 hPa 0,0 l/m 0 min 0 min 0 W/m 12,6 km/h (3 Bft) 95,74 %
22.09.2015 22:58 10,7 C 10,6 C 8,9 C 94 % 1 lf 1000,7 hPa 0,0 l/m 0 min 0 min 0 W/m 8,4 km/h (2 Bft) 95,74 %
22.09.2015 23:00 10,6 C 10,6 C 8,9 C 94 % 1 lf 1000,7 hPa 0,0 l/m 0 min 0 min 0 W/m 8,4 km/h (2 Bft) 93,62 %
22.09.2015 23:02 10,6 C 10,6 C 8,9 C 94 % 1 lf 1000,8 hPa 0,0 l/m 0 min 0 min 0 W/m 10,5 km/h (2 Bft) 95,74 %
22.09.2015 23:04 10,6 C 10,6 C 8,9 C 94 % 1 lf 1000,8 hPa 0,0 l/m 0 min 0 min 0 W/m 12,6 km/h (3 Bft) 95,65 %
22.09.2015 23:06 10,6 C 10,6 C 8,9 C 94 % 1 lf 1000,8 hPa 0,0 l/m 0 min 0 min 0 W/m 10,5 km/h (2 Bft) 95,74 %
22.09.2015 23:08 10,6 C 10,0 C 8,9 C 94 % 1 lf 1000,8 hPa 0,0 l/m 0 min 0 min 0 W/m 8,4 km/h (2 Bft) 95,74 %
22.09.2015 23:10 10,6 C 10,0 C 8,9 C 94 % 1 lf 1000,8 hPa 0,0 l/m 0 min 0 min 0 W/m 12,6 km/h (3 Bft) 91,49 %
22.09.2015 23:12 10,5 C 10,0 C 8,9 C 94 % 1 lf 1000,9 hPa 0,0 l/m 0 min 0 min 0 W/m 10,5 km/h (2 Bft) 97,87 %
22.09.2015 23:14 10,5 C 10,0 C 8,9 C 94 % 1 lf 1000,9 hPa 0,0 l/m 0 min 0 min 0 W/m 14,6 km/h (3 Bft) 97,87 %
22.09.2015 23:16 10,4 C 10,0 C 8,9 C 94 % 1 lf 1000,9 hPa 0,0 l/m 0 min 0 min 0 W/m 10,5 km/h (2 Bft) 95,65 %
22.09.2015 23:18 10,4 C 10,0 C 8,9 C 94 % 1 lf 1000,9 hPa 0,0 l/m 0 min 0 min 0 W/m 10,5 km/h (2 Bft) 97,87 %
22.09.2015 23:20 10,4 C 10,0 C 8,9 C 94 % 1 lf 1000,9 hPa 0,0 l/m 0 min 0 min 0 W/m 12,6 km/h (3 Bft) 97,87 %
22.09.2015 23:22 10,4 C 10,0 C 8,9 C 94 % 1 lf 1001,0 hPa 0,0 l/m 0 min 0 min 0 W/m 10,5 km/h (2 Bft) 97,87 %
22.09.2015 23:24 10,4 C 10,0 C 8,9 C 94 % 1 lf 1001,0 hPa 0,0 l/m 0 min 0 min 0 W/m 16,7 km/h (3 Bft) 97,87 %
22.09.2015 23:26 10,3 C 10,0 C 8,9 C 94 % 1 lf 1001,0 hPa 0,0 l/m 0 min 0 min 0 W/m 14,6 km/h (3 Bft) 93,62 %
22.09.2015 23:28 10,3 C 10,0 C 8,9 C 94 % 1 lf 1001,0 hPa 0,0 l/m 0 min 0 min 0 W/m 10,5 km/h (2 Bft) 97,83 %
22.09.2015 23:30 10,3 C 10,0 C 8,9 C 94 % 1 lf 1001,2 hPa 0,0 l/m 0 min 0 min 0 W/m 12,6 km/h (3 Bft) 97,87 %
22.09.2015 23:32 10,3 C 10,0 C 8,9 C 94 % 1 lf 1001,2 hPa 0,0 l/m 0 min 0 min 0 W/m 14,6 km/h (3 Bft) 95,74 %
22.09.2015 23:34 10,3 C 10,0 C 8,9 C 94 % 1 lf 1001,2 hPa 0,0 l/m 0 min 0 min 0 W/m 8,4 km/h (2 Bft) 95,74 %
22.09.2015 23:36 10,3 C 10,0 C 8,9 C 94 % 1 lf 1001,2 hPa 0,0 l/m 0 min 0 min 0 W/m 10,5 km/h (2 Bft) 97,87 %
22.09.2015 23:38 10,2 C 10,0 C 8,9 C 94 % 1 lf 1001,2 hPa 0,0 l/m 0 min 0 min 0 W/m 12,6 km/h (3 Bft) 95,74 %
22.09.2015 23:40 10,2 C 10,0 C 8,9 C 94 % 1 lf 1001,1 hPa 0,0 l/m 0 min 0 min 0 W/m 12,6 km/h (3 Bft) 100,00 %
22.09.2015 23:42 10,2 C 10,0 C 8,9 C 94 % 1 lf 1001,1 hPa 0,0 l/m 0 min 0 min 0 W/m 10,5 km/h (2 Bft) 97,87 %
22.09.2015 23:44 10,2 C 10,0 C 8,9 C 94 % 1 lf 1001,2 hPa 0,0 l/m 0 min 0 min 0 W/m 8,4 km/h (2 Bft) 97,87 %
22.09.2015 23:46 10,2 C 10,0 C 8,9 C 94 % 1 lf 1001,2 hPa 0,0 l/m 0 min 0 min 0 W/m 8,4 km/h (2 Bft) 97,87 %
22.09.2015 23:48 10,2 C 10,0 C 8,9 C 94 % 1 lf 1001,2 hPa 0,0 l/m 0 min 0 min 0 W/m 6,3 km/h (2 Bft) 97,87 %
22.09.2015 23:50 10,2 C 10,0 C 8,9 C 94 % 1 lf 1001,2 hPa 0,0 l/m 0 min 0 min 0 W/m 4,2 km/h (1 Bft) 97,83 %
22.09.2015 23:52 10,2 C 10,0 C 8,9 C 94 % 1 lf 1001,2 hPa 0,0 l/m 0 min 0 min 0 W/m 6,3 km/h (2 Bft) 97,87 %
22.09.2015 23:54 10,2 C 10,0 C 8,9 C 94 % 1 lf 1001,2 hPa 0,0 l/m 0 min 0 min 0 W/m 6,3 km/h (2 Bft) 100,00 %
22.09.2015 23:56 10,2 C 9,4 C 8,9 C 94 % 1 lf 1001,2 hPa 0,0 l/m 0 min 0 min 0 W/m 8,4 km/h (2 Bft) 97,87 %
22.09.2015 23:58 10,1 C 9,4 C 8,3 C 94 % 1 lf 1001,2 hPa 0,0 l/m 0 min 0 min 0 W/m 6,3 km/h (2 Bft) 95,74 %
_ Min-Zeit 23:56 23:56 23:58 17:06 10:40 18:14 - - - - 17:40 03:58
Minimum _ 10,1 C 9,4 C 8,3 C 80 % 0 lf 998,2 hPa - - - - 2,1 km/h (1 Bft) 87,23 %
_ Max-Zeit 14:44 13:54 16:26 13:14 00:00 00:00 00:08 07:34 00:00 13:32 17:06 01:24
Maximum _ 15,8 C 23,9 C 15,6 C 98 % 15 lf 1008,3 hPa 0,2 l/m 2 min 2 min 815 W/m 37,7 km/h
SW (5 Bft)
100,00 %
Durchschnitt _ 12,9 C 12,8 C 11,4 C 93 % 9 lf 1001,9 hPa #5,8 l/m #1:54 h #7:09 h 125 W/m 13,0 km/h (3 Bft) 96,24 %
© 2015 W. Hausmann